Wetterdaten: Donnerstag, 03.11.2016
Datum Zeit Temp. A. Feuchte A. Luftdruck Regen Wind Richtung Richtung Sonnenschein ET UV Solar Taupunkt Windchill Windben Empfang
03.11.2016 00:00 5,6 C 90 % 1018,1 hPa 0,0 l/m 16,7 km/h (3 Bft) SW 229 0 min 0,000 mm 0,0 UV-I 0 W/m 4,1 C -1,0 C 22,5 km/h (4 Bft) 100,00 %
03.11.2016 00:02 5,6 C 90 % 1018,1 hPa 0,0 l/m 15,0 km/h (3 Bft) S-SW 213 0 min 0,000 mm 0,0 UV-I 0 W/m 4,1 C -0,2 C 24,1 km/h (4 Bft) 100,00 %
03.11.2016 00:04 5,6 C 90 % 1018,1 hPa 0,0 l/m 13,0 km/h (3 Bft) SW 223 0 min 0,000 mm 0,0 UV-I 0 W/m 4,1 C 0,9 C 20,9 km/h (4 Bft) 100,00 %
03.11.2016 00:06 5,6 C 90 % 1018,0 hPa 0,0 l/m 14,1 km/h (3 Bft) SW 226 0 min 0,000 mm 0,0 UV-I 0 W/m 4,1 C 0,3 C 19,3 km/h (3 Bft) 97,44 %
03.11.2016 00:08 5,6 C 90 % 1018,1 hPa 0,0 l/m 11,9 km/h (2 Bft) SW 224 0 min 0,000 mm 0,0 UV-I 0 W/m 4,1 C 1,5 C 17,7 km/h (3 Bft) 97,73 %
03.11.2016 00:10 5,6 C 90 % 1018,1 hPa 0,0 l/m 11,9 km/h (2 Bft) S-SW 212 0 min 0,000 mm 0,0 UV-I 0 W/m 4,1 C 1,5 C 16,1 km/h (3 Bft) 100,00 %
03.11.2016 00:12 5,6 C 90 % 1018,1 hPa 0,0 l/m 11,9 km/h (2 Bft) SW 219 0 min 0,000 mm 0,0 UV-I 0 W/m 4,1 C 1,5 C 20,9 km/h (4 Bft) 100,00 %
03.11.2016 00:14 5,6 C 90 % 1018,1 hPa 0,0 l/m 11,4 km/h (2 Bft) S-SW 198 0 min 0,000 mm 0,0 UV-I 0 W/m 4,1 C 1,8 C 19,3 km/h (3 Bft) 100,00 %
03.11.2016 00:16 5,7 C 90 % 1018,1 hPa 0,0 l/m 12,8 km/h (3 Bft) W-SW 242 0 min 0,000 mm 0,0 UV-I 0 W/m 4,2 C 1,1 C 20,9 km/h (4 Bft) 100,00 %
03.11.2016 00:18 5,7 C 89 % 1018,1 hPa 0,0 l/m 13,0 km/h (3 Bft) SW 231 0 min 0,000 mm 0,0 UV-I 0 W/m 4,0 C 1,0 C 20,9 km/h (4 Bft) 100,00 %
03.11.2016 00:20 5,7 C 89 % 1018,1 hPa 0,0 l/m 11,5 km/h (2 Bft) W-SW 254 0 min 0,000 mm 0,0 UV-I 0 W/m 4,0 C 1,9 C 20,9 km/h (4 Bft) 100,00 %
03.11.2016 00:22 5,7 C 89 % 1018,0 hPa 0,0 l/m 15,1 km/h (3 Bft) SW 234 0 min 0,000 mm 0,0 UV-I 0 W/m 4,0 C -0,1 C 19,3 km/h (3 Bft) 100,00 %
03.11.2016 00:24 5,7 C 89 % 1018,0 hPa 0,0 l/m 13,8 km/h (3 Bft) SW 215 0 min 0,000 mm 0,0 UV-I 0 W/m 4,0 C 0,5 C 20,9 km/h (4 Bft) 97,56 %
03.11.2016 00:26 5,7 C 89 % 1018,0 hPa 0,0 l/m 14,6 km/h (3 Bft) W 264 0 min 0,000 mm 0,0 UV-I 0 W/m 4,0 C 0,1 C 24,1 km/h (4 Bft) 100,00 %
03.11.2016 00:28 5,7 C 89 % 1018,1 hPa 0,0 l/m 14,6 km/h (3 Bft) W-SW 250 0 min 0,000 mm 0,0 UV-I 0 W/m 4,0 C 0,1 C 19,3 km/h (3 Bft) 100,00 %
03.11.2016 00:30 5,7 C 89 % 1018,0 hPa 0,0 l/m 11,2 km/h (2 Bft) SW 231 0 min 0,000 mm 0,0 UV-I 0 W/m 4,0 C 2,1 C 16,1 km/h (3 Bft) 96,23 %
03.11.2016 00:32 5,7 C 89 % 1018,0 hPa 0,0 l/m 11,9 km/h (2 Bft) W-SW 244 0 min 0,000 mm 0,0 UV-I 0 W/m 4,0 C 1,6 C 19,3 km/h (3 Bft) 100,00 %
03.11.2016 00:34 5,7 C 89 % 1018,0 hPa 0,0 l/m 14,3 km/h (3 Bft) SW 221 0 min 0,000 mm 0,0 UV-I 0 W/m 4,0 C 0,3 C 22,5 km/h (4 Bft) 100,00 %
03.11.2016 00:36 5,7 C 89 % 1018,0 hPa 0,0 l/m 12,9 km/h (3 Bft) W-NW 298 0 min 0,000 mm 0,0 UV-I 0 W/m 4,0 C 1,0 C 19,3 km/h (3 Bft) 98,11 %
03.11.2016 00:38 5,7 C 89 % 1018,1 hPa 0,0 l/m 11,6 km/h (2 Bft) W-SW 252 0 min 0,000 mm 0,0 UV-I 0 W/m 4,0 C 1,8 C 19,3 km/h (3 Bft) 100,00 %
03.11.2016 00:40 5,7 C 89 % 1018,0 hPa 0,0 l/m 12,2 km/h (2 Bft) W-SW 246 0 min 0,000 mm 0,0 UV-I 0 W/m 4,0 C 1,4 C 17,7 km/h (3 Bft) 98,08 %
03.11.2016 00:42 5,7 C 89 % 1018,1 hPa 0,0 l/m 12,0 km/h (2 Bft) W 268 0 min 0,000 mm 0,0 UV-I 0 W/m 4,0 C 1,6 C 17,7 km/h (3 Bft) 100,00 %
03.11.2016 00:44 5,7 C 89 % 1018,1 hPa 0,0 l/m 11,5 km/h (2 Bft) W-SW 237 0 min 0,000 mm 0,0 UV-I 0 W/m 4,0 C 1,9 C 16,1 km/h (3 Bft) 100,00 %
03.11.2016 00:46 5,7 C 89 % 1018,1 hPa 0,0 l/m 9,9 km/h (2 Bft) W-SW 243 0 min 0,000 mm 0,0 UV-I 0 W/m 4,0 C 2,9 C 14,5 km/h (3 Bft) 97,87 %
03.11.2016 00:48 5,7 C 89 % 1018,2 hPa 0,0 l/m 10,2 km/h (2 Bft) W-SW 242 0 min 0,000 mm 0,0 UV-I 0 W/m 4,0 C 2,7 C 17,7 km/h (3 Bft) 100,00 %
03.11.2016 00:50 5,7 C 89 % 1018,2 hPa 0,0 l/m 10,0 km/h (2 Bft) W-SW 244 0 min 0,000 mm 0,0 UV-I 0 W/m 4,0 C 2,8 C 14,5 km/h (3 Bft) 97,37 %
03.11.2016 00:52 5,6 C 89 % 1018,2 hPa 0,0 l/m 9,4 km/h (2 Bft) W-SW 254 0 min 0,000 mm 0,0 UV-I 0 W/m 3,9 C 3,2 C 14,5 km/h (3 Bft) 100,00 %
03.11.2016 00:54 5,6 C 90 % 1018,2 hPa 0,0 l/m 10,2 km/h (2 Bft) W 272 0 min 0,000 mm 0,0 UV-I 0 W/m 4,1 C 2,6 C 19,3 km/h (3 Bft) 100,00 %
03.11.2016 00:56 5,6 C 89 % 1018,2 hPa 0,0 l/m 12,1 km/h (2 Bft) W 265 0 min 0,000 mm 0,0 UV-I 0 W/m 3,9 C 1,4 C 17,7 km/h (3 Bft) 100,00 %
03.11.2016 00:58 5,5 C 90 % 1018,2 hPa 0,0 l/m 12,3 km/h (3 Bft) W 264 0 min 0,000 mm 0,0 UV-I 0 W/m 4,0 C 1,2 C 19,3 km/h (3 Bft) 100,00 %
03.11.2016 01:00 5,5 C 90 % 1018,2 hPa 0,0 l/m 11,2 km/h (2 Bft) W-SW 242 0 min 0,025 mm 0,0 UV-I 0 W/m 4,0 C 1,8 C 16,1 km/h (3 Bft) 100,00 %
03.11.2016 01:02 5,4 C 90 % 1018,3 hPa 0,0 l/m 12,5 km/h (3 Bft) W-SW 254 0 min 0,000 mm 0,0 UV-I 0 W/m 3,9 C 0,9 C 17,7 km/h (3 Bft) 100,00 %
03.11.2016 01:04 5,4 C 90 % 1018,3 hPa 0,0 l/m 12,5 km/h (3 Bft) W-SW 257 0 min 0,000 mm 0,0 UV-I 0 W/m 3,9 C 0,9 C 17,7 km/h (3 Bft) 100,00 %
03.11.2016 01:06 5,4 C 90 % 1018,4 hPa 0,0 l/m 12,1 km/h (2 Bft) W-SW 252 0 min 0,000 mm 0,0 UV-I 0 W/m 3,9 C 1,2 C 19,3 km/h (3 Bft) 96,23 %
03.11.2016 01:08 5,4 C 90 % 1018,4 hPa 0,0 l/m 9,3 km/h (2 Bft) W-SW 252 0 min 0,000 mm 0,0 UV-I 0 W/m 3,9 C 3,0 C 12,9 km/h (3 Bft) 100,00 %
03.11.2016 01:10 5,4 C 90 % 1018,4 hPa 0,0 l/m 10,0 km/h (2 Bft) SW 225 0 min 0,000 mm 0,0 UV-I 0 W/m 3,9 C 2,5 C 16,1 km/h (3 Bft) 98,21 %
03.11.2016 01:12 5,3 C 90 % 1018,4 hPa 0,0 l/m 9,5 km/h (2 Bft) W-SW 253 0 min 0,000 mm 0,0 UV-I 0 W/m 3,8 C 2,8 C 16,1 km/h (3 Bft) 97,37 %
03.11.2016 01:14 5,3 C 90 % 1018,5 hPa 0,0 l/m 10,6 km/h (2 Bft) W-SW 250 0 min 0,000 mm 0,0 UV-I 0 W/m 3,8 C 2,0 C 16,1 km/h (3 Bft) 96,43 %
03.11.2016 01:16 5,3 C 90 % 1018,5 hPa 0,0 l/m 10,0 km/h (2 Bft) SW 226 0 min 0,000 mm 0,0 UV-I 0 W/m 3,8 C 2,4 C 17,7 km/h (3 Bft) 96,00 %
03.11.2016 01:18 5,2 C 90 % 1018,5 hPa 0,0 l/m 8,2 km/h (2 Bft) W-SW 248 0 min 0,000 mm 0,0 UV-I 0 W/m 3,7 C 3,6 C 12,9 km/h (3 Bft) 95,74 %
03.11.2016 01:20 5,2 C 90 % 1018,5 hPa 0,0 l/m 8,8 km/h (2 Bft) SW 228 0 min 0,000 mm 0,0 UV-I 0 W/m 3,7 C 3,2 C 14,5 km/h (3 Bft) 95,45 %
03.11.2016 01:22 5,2 C 90 % 1018,5 hPa 0,0 l/m 8,8 km/h (2 Bft) W-SW 250 0 min 0,000 mm 0,0 UV-I 0 W/m 3,7 C 3,2 C 12,9 km/h (3 Bft) 97,62 %
03.11.2016 01:24 5,2 C 91 % 1018,5 hPa 0,0 l/m 8,6 km/h (2 Bft) SW 231 0 min 0,000 mm 0,0 UV-I 0 W/m 3,9 C 3,3 C 14,5 km/h (3 Bft) 98,18 %
03.11.2016 01:26 5,2 C 91 % 1018,5 hPa 0,0 l/m 9,3 km/h (2 Bft) W 259 0 min 0,000 mm 0,0 UV-I 0 W/m 3,9 C 2,8 C 12,9 km/h (3 Bft) 95,56 %
03.11.2016 01:28 5,2 C 91 % 1018,5 hPa 0,0 l/m 9,7 km/h (2 Bft) W-SW 246 0 min 0,000 mm 0,0 UV-I 0 W/m 3,9 C 2,5 C 14,5 km/h (3 Bft) 97,73 %
03.11.2016 01:30 5,1 C 91 % 1018,5 hPa 0,0 l/m 8,4 km/h (2 Bft) W-SW 247 0 min 0,000 mm 0,0 UV-I 0 W/m 3,8 C 3,4 C 14,5 km/h (3 Bft) 95,74 %
03.11.2016 01:32 5,1 C 91 % 1018,5 hPa 0,0 l/m 10,8 km/h (2 Bft) W-SW 257 0 min 0,000 mm 0,0 UV-I 0 W/m 3,8 C 1,6 C 17,7 km/h (3 Bft) 97,56 %
03.11.2016 01:34 5,1 C 91 % 1018,5 hPa 0,0 l/m 11,7 km/h (2 Bft) W-SW 251 0 min 0,000 mm 0,0 UV-I 0 W/m 3,8 C 1,1 C 16,1 km/h (3 Bft) 95,45 %
03.11.2016 01:36 5,1 C 91 % 1018,5 hPa 0,0 l/m 8,9 km/h (2 Bft) SW 215 0 min 0,000 mm 0,0 UV-I 0 W/m 3,8 C 3,0 C 12,9 km/h (3 Bft) 96,23 %
03.11.2016 01:38 5,1 C 91 % 1018,5 hPa 0,0 l/m 9,8 km/h (2 Bft) W-SW 242 0 min 0,000 mm 0,0 UV-I 0 W/m 3,8 C 2,3 C 14,5 km/h (3 Bft) 97,56 %
03.11.2016 01:40 5,1 C 90 % 1018,5 hPa 0,0 l/m 11,3 km/h (2 Bft) W-SW 254 0 min 0,000 mm 0,0 UV-I 0 W/m 3,6 C 1,3 C 16,1 km/h (3 Bft) 98,00 %
03.11.2016 01:42 5,0 C 90 % 1018,6 hPa 0,0 l/m 9,5 km/h (2 Bft) W-SW 250 0 min 0,000 mm 0,0 UV-I 0 W/m 3,5 C 2,4 C 14,5 km/h (3 Bft) 97,73 %
03.11.2016 01:44 4,9 C 90 % 1018,6 hPa 0,0 l/m 11,0 km/h (2 Bft) W-SW 250 0 min 0,000 mm 0,0 UV-I 0 W/m 3,4 C 1,3 C 16,1 km/h (3 Bft) 98,21 %
03.11.2016 01:46 4,9 C 90 % 1018,6 hPa 0,0 l/m 9,3 km/h (2 Bft) W-SW 253 0 min 0,000 mm 0,0 UV-I 0 W/m 3,4 C 2,5 C 12,9 km/h (3 Bft) 96,00 %
03.11.2016 01:48 4,9 C 90 % 1018,6 hPa 0,0 l/m 10,5 km/h (2 Bft) W-SW 257 0 min 0,000 mm 0,0 UV-I 0 W/m 3,4 C 1,6 C 12,9 km/h (3 Bft) 100,00 %
03.11.2016 01:50 4,9 C 91 % 1018,5 hPa 0,0 l/m 12,5 km/h (3 Bft) W-SW 242 0 min 0,000 mm 0,0 UV-I 0 W/m 3,6 C 0,3 C 17,7 km/h (3 Bft) 100,00 %
03.11.2016 01:52 4,8 C 90 % 1018,6 hPa 0,0 l/m 10,8 km/h (2 Bft) W-SW 240 0 min 0,000 mm 0,0 UV-I 0 W/m 3,3 C 1,3 C 14,5 km/h (3 Bft) 100,00 %
03.11.2016 01:54 4,8 C 91 % 1018,5 hPa 0,0 l/m 9,1 km/h (2 Bft) W-SW 249 0 min 0,000 mm 0,0 UV-I 0 W/m 3,5 C 2,5 C 12,9 km/h (3 Bft) 97,73 %
03.11.2016 01:56 4,8 C 91 % 1018,5 hPa 0,0 l/m 10,8 km/h (2 Bft) W-SW 254 0 min 0,000 mm 0,0 UV-I 0 W/m 3,5 C 1,3 C 16,1 km/h (3 Bft) 100,00 %
03.11.2016 01:58 4,7 C 91 % 1018,5 hPa 0,0 l/m 10,1 km/h (2 Bft) S-SW 207 0 min 0,000 mm 0,0 UV-I 0 W/m 3,4 C 1,7 C 16,1 km/h (3 Bft) 98,28 %
03.11.2016 02:00 4,7 C 90 % 1018,6 hPa 0,0 l/m 9,7 km/h (2 Bft) W-SW 250 0 min 0,000 mm 0,0 UV-I 0 W/m 3,2 C 2,0 C 12,9 km/h (3 Bft) 100,00 %
03.11.2016 02:02 4,7 C 90 % 1018,6 hPa 0,0 l/m 9,8 km/h (2 Bft) W-SW 251 0 min 0,000 mm 0,0 UV-I 0 W/m 3,2 C 1,9 C 14,5 km/h (3 Bft) 100,00 %
03.11.2016 02:04 4,7 C 90 % 1018,6 hPa 0,0 l/m 8,6 km/h (2 Bft) W-SW 244 0 min 0,000 mm 0,0 UV-I 0 W/m 3,2 C 2,8 C 11,3 km/h (2 Bft) 100,00 %
03.11.2016 02:06 4,6 C 90 % 1018,6 hPa 0,0 l/m 8,2 km/h (2 Bft) SW 226 0 min 0,000 mm 0,0 UV-I 0 W/m 3,1 C 3,0 C 11,3 km/h (2 Bft) 100,00 %
03.11.2016 02:08 4,6 C 90 % 1018,6 hPa 0,0 l/m 10,2 km/h (2 Bft) W-SW 240 0 min 0,000 mm 0,0 UV-I 0 W/m 3,1 C 1,5 C 14,5 km/h (3 Bft) 100,00 %
03.11.2016 02:10 4,6 C 91 % 1018,6 hPa 0,0 l/m 11,3 km/h (2 Bft) W-SW 238 0 min 0,000 mm 0,0 UV-I 0 W/m 3,3 C 0,7 C 14,5 km/h (3 Bft) 100,00 %
03.11.2016 02:12 4,5 C 90 % 1018,6 hPa 0,0 l/m 9,4 km/h (2 Bft) SW 229 0 min 0,000 mm 0,0 UV-I 0 W/m 3,0 C 2,0 C 12,9 km/h (3 Bft) 100,00 %
03.11.2016 02:14 4,4 C 91 % 1018,6 hPa 0,0 l/m 8,8 km/h (2 Bft) W-SW 239 0 min 0,000 mm 0,0 UV-I 0 W/m 3,1 C 2,3 C 12,9 km/h (3 Bft) 98,00 %
03.11.2016 02:16 4,4 C 91 % 1018,6 hPa 0,0 l/m 8,7 km/h (2 Bft) SW 231 0 min 0,000 mm 0,0 UV-I 0 W/m 3,1 C 2,4 C 12,9 km/h (3 Bft) 100,00 %
03.11.2016 02:18 4,4 C 91 % 1018,6 hPa 0,0 l/m 8,0 km/h (2 Bft) S-SW 210 0 min 0,000 mm 0,0 UV-I 0 W/m 3,1 C 3,0 C 12,9 km/h (3 Bft) 100,00 %
03.11.2016 02:20 4,3 C 91 % 1018,6 hPa 0,0 l/m 7,7 km/h (2 Bft) SW 214 0 min 0,000 mm 0,0 UV-I 0 W/m 3,0 C 3,1 C 11,3 km/h (2 Bft) 98,11 %
03.11.2016 02:22 4,3 C 91 % 1018,6 hPa 0,0 l/m 7,8 km/h (2 Bft) S-SW 209 0 min 0,000 mm 0,0 UV-I 0 W/m 3,0 C 3,0 C 11,3 km/h (2 Bft) 100,00 %
03.11.2016 02:24 4,3 C 91 % 1018,6 hPa 0,0 l/m 8,9 km/h (2 Bft) W-SW 237 0 min 0,000 mm 0,0 UV-I 0 W/m 3,0 C 2,1 C 12,9 km/h (3 Bft) 100,00 %
03.11.2016 02:26 4,3 C 91 % 1018,6 hPa 0,0 l/m 9,3 km/h (2 Bft) S-SW 197 0 min 0,000 mm 0,0 UV-I 0 W/m 3,0 C 1,8 C 14,5 km/h (3 Bft) 97,73 %
03.11.2016 02:28 4,3 C 91 % 1018,6 hPa 0,0 l/m 8,6 km/h (2 Bft) W-SW 241 0 min 0,000 mm 0,0 UV-I 0 W/m 3,0 C 2,4 C 12,9 km/h (3 Bft) 98,11 %
03.11.2016 02:30 4,2 C 91 % 1018,6 hPa 0,0 l/m 8,0 km/h (2 Bft) W-SW 243 0 min 0,000 mm 0,0 UV-I 0 W/m 2,9 C 2,8 C 12,9 km/h (3 Bft) 100,00 %
03.11.2016 02:32 4,2 C 91 % 1018,6 hPa 0,0 l/m 9,1 km/h (2 Bft) SW 228 0 min 0,000 mm 0,0 UV-I 0 W/m 2,9 C 1,9 C 12,9 km/h (3 Bft) 100,00 %
03.11.2016 02:34 4,2 C 91 % 1018,7 hPa 0,0 l/m 8,1 km/h (2 Bft) S-SW 208 0 min 0,000 mm 0,0 UV-I 0 W/m 2,9 C 2,7 C 12,9 km/h (3 Bft) 100,00 %
03.11.2016 02:36 4,2 C 91 % 1018,6 hPa 0,0 l/m 8,6 km/h (2 Bft) W-SW 244 0 min 0,000 mm 0,0 UV-I 0 W/m 2,9 C 2,3 C 12,9 km/h (3 Bft) 100,00 %
03.11.2016 02:38 4,1 C 92 % 1018,7 hPa 0,0 l/m 8,7 km/h (2 Bft) SW 229 0 min 0,000 mm 0,0 UV-I 0 W/m 2,9 C 2,1 C 12,9 km/h (3 Bft) 100,00 %
03.11.2016 02:40 4,1 C 92 % 1018,6 hPa 0,0 l/m 9,0 km/h (2 Bft) SW 226 0 min 0,000 mm 0,0 UV-I 0 W/m 2,9 C 1,8 C 16,1 km/h (3 Bft) 100,00 %
03.11.2016 02:42 4,1 C 92 % 1018,6 hPa 0,0 l/m 10,0 km/h (2 Bft) SW 229 0 min 0,000 mm 0,0 UV-I 0 W/m 2,9 C 1,1 C 14,5 km/h (3 Bft) 100,00 %
03.11.2016 02:44 4,0 C 92 % 1018,6 hPa 0,0 l/m 9,1 km/h (2 Bft) SW 234 0 min 0,000 mm 0,0 UV-I 0 W/m 2,8 C 1,6 C 12,9 km/h (3 Bft) 100,00 %
03.11.2016 02:46 4,0 C 92 % 1018,6 hPa 0,0 l/m 11,1 km/h (2 Bft) S-SW 213 0 min 0,000 mm 0,0 UV-I 0 W/m 2,8 C 0,2 C 17,7 km/h (3 Bft) 100,00 %
03.11.2016 02:48 4,0 C 92 % 1018,6 hPa 0,0 l/m 11,1 km/h (2 Bft) SW 233 0 min 0,000 mm 0,0 UV-I 0 W/m 2,8 C 0,2 C 17,7 km/h (3 Bft) 100,00 %
03.11.2016 02:50 4,1 C 92 % 1018,6 hPa 0,0 l/m 11,8 km/h (2 Bft) S-SW 203 0 min 0,000 mm 0,0 UV-I 0 W/m 2,9 C -0,2 C 19,3 km/h (3 Bft) 100,00 %
03.11.2016 02:52 4,1 C 92 % 1018,6 hPa 0,0 l/m 10,4 km/h (2 Bft) SW 230 0 min 0,000 mm 0,0 UV-I 0 W/m 2,9 C 0,8 C 17,7 km/h (3 Bft) 100,00 %
03.11.2016 02:54 4,1 C 92 % 1018,6 hPa 0,0 l/m 11,7 km/h (2 Bft) SW 227 0 min 0,000 mm 0,0 UV-I 0 W/m 2,9 C -0,1 C 14,5 km/h (3 Bft) 100,00 %
03.11.2016 02:56 4,1 C 92 % 1018,6 hPa 0,0 l/m 10,0 km/h (2 Bft) SW 217 0 min 0,000 mm 0,0 UV-I 0 W/m 2,9 C 1,1 C 16,1 km/h (3 Bft) 100,00 %
03.11.2016 02:58 4,0 C 92 % 1018,6 hPa 0,0 l/m 9,5 km/h (2 Bft) S-SW 209 0 min 0,000 mm 0,0 UV-I 0 W/m 2,8 C 1,3 C 12,9 km/h (3 Bft) 97,87 %
03.11.2016 03:00 4,0 C 92 % 1018,5 hPa 0,0 l/m 9,4 km/h (2 Bft) SW 215 0 min 0,000 mm 0,0 UV-I 0 W/m 2,8 C 1,4 C 16,1 km/h (3 Bft) 98,00 %
03.11.2016 03:02 4,0 C 93 % 1018,5 hPa 0,0 l/m 9,9 km/h (2 Bft) S-SW 203 0 min 0,000 mm 0,0 UV-I 0 W/m 3,0 C 1,0 C 16,1 km/h (3 Bft) 97,87 %
03.11.2016 03:04 4,0 C 93 % 1018,6 hPa 0,0 l/m 11,1 km/h (2 Bft) SW 223 0 min 0,000 mm 0,0 UV-I 0 W/m 3,0 C 0,2 C 16,1 km/h (3 Bft) 100,00 %
03.11.2016 03:06 3,9 C 93 % 1018,6 hPa 0,0 l/m 10,3 km/h (2 Bft) W-SW 240 0 min 0,000 mm 0,0 UV-I 0 W/m 2,9 C 0,6 C 14,5 km/h (3 Bft) 100,00 %
03.11.2016 03:08 3,9 C 93 % 1018,6 hPa 0,0 l/m 10,7 km/h (2 Bft) SW 236 0 min 0,000 mm 0,0 UV-I 0 W/m 2,9 C 0,4 C 16,1 km/h (3 Bft) 100,00 %
03.11.2016 03:10 3,9 C 93 % 1018,6 hPa 0,0 l/m 9,1 km/h (2 Bft) SW 227 0 min 0,000 mm 0,0 UV-I 0 W/m 2,9 C 1,5 C 12,9 km/h (3 Bft) 100,00 %
03.11.2016 03:12 3,9 C 93 % 1018,6 hPa 0,0 l/m 8,9 km/h (2 Bft) SW 233 0 min 0,000 mm 0,0 UV-I 0 W/m 2,9 C 1,7 C 12,9 km/h (3 Bft) 100,00 %
03.11.2016 03:14 3,9 C 93 % 1018,7 hPa 0,0 l/m 9,3 km/h (2 Bft) SW 226 0 min 0,000 mm 0,0 UV-I 0 W/m 2,9 C 1,4 C 14,5 km/h (3 Bft) 100,00 %
03.11.2016 03:16 3,9 C 93 % 1018,6 hPa 0,0 l/m 9,1 km/h (2 Bft) SW 232 0 min 0,000 mm 0,0 UV-I 0 W/m 2,9 C 1,5 C 11,3 km/h (2 Bft) 100,00 %
03.11.2016 03:18 3,8 C 93 % 1018,7 hPa 0,0 l/m 10,8 km/h (2 Bft) SW 234 0 min 0,000 mm 0,0 UV-I 0 W/m 2,8 C 0,2 C 14,5 km/h (3 Bft) 98,18 %
03.11.2016 03:20 3,8 C 93 % 1018,6 hPa 0,0 l/m 9,0 km/h (2 Bft) W-SW 241 0 min 0,000 mm 0,0 UV-I 0 W/m 2,8 C 1,5 C 12,9 km/h (3 Bft) 100,00 %
03.11.2016 03:22 3,8 C 93 % 1018,7 hPa 0,0 l/m 8,1 km/h (2 Bft) W-SW 248 0 min 0,000 mm 0,0 UV-I 0 W/m 2,8 C 2,3 C 11,3 km/h (2 Bft) 100,00 %
03.11.2016 03:24 3,7 C 93 % 1018,6 hPa 0,0 l/m 9,4 km/h (2 Bft) W-SW 240 0 min 0,000 mm 0,0 UV-I 0 W/m 2,7 C 1,1 C 12,9 km/h (3 Bft) 97,62 %
03.11.2016 03:26 3,7 C 93 % 1018,6 hPa 0,0 l/m 9,6 km/h (2 Bft) SW 232 0 min 0,000 mm 0,0 UV-I 0 W/m 2,7 C 0,9 C 14,5 km/h (3 Bft) 97,73 %
03.11.2016 03:28 3,7 C 93 % 1018,6 hPa 0,0 l/m 9,9 km/h (2 Bft) SW 224 0 min 0,000 mm 0,0 UV-I 0 W/m 2,7 C 0,7 C 19,3 km/h (3 Bft) 97,87 %
03.11.2016 03:30 3,7 C 93 % 1018,6 hPa 0,0 l/m 10,4 km/h (2 Bft) W-SW 240 0 min 0,000 mm 0,0 UV-I 0 W/m 2,7 C 0,3 C 16,1 km/h (3 Bft) 98,00 %
03.11.2016 03:32 3,7 C 93 % 1018,6 hPa 0,0 l/m 7,5 km/h (2 Bft) W-SW 238 0 min 0,000 mm 0,0 UV-I 0 W/m 2,7 C 2,7 C 11,3 km/h (2 Bft) 97,56 %
03.11.2016 03:34 3,7 C 93 % 1018,6 hPa 0,0 l/m 7,9 km/h (2 Bft) W-SW 250 0 min 0,000 mm 0,0 UV-I 0 W/m 2,7 C 2,3 C 11,3 km/h (2 Bft) 97,73 %
03.11.2016 03:36 3,7 C 93 % 1018,6 hPa 0,0 l/m 7,1 km/h (2 Bft) SW 229 0 min 0,000 mm 0,0 UV-I 0 W/m 2,7 C 3,1 C 11,3 km/h (2 Bft) 94,44 %
03.11.2016 03:38 3,7 C 93 % 1018,7 hPa 0,0 l/m 6,8 km/h (2 Bft) W 265 0 min 0,000 mm 0,0 UV-I 0 W/m 2,7 C 3,3 C 11,3 km/h (2 Bft) 97,56 %
03.11.2016 03:40 3,6 C 93 % 1018,6 hPa 0,0 l/m 6,3 km/h (2 Bft) W-SW 257 0 min 0,000 mm 0,0 UV-I 0 W/m 2,6 C 3,6 C 9,7 km/h (2 Bft) 94,34 %
03.11.2016 03:42 3,6 C 93 % 1018,7 hPa 0,0 l/m 6,7 km/h (2 Bft) W-SW 257 0 min 0,000 mm 0,0 UV-I 0 W/m 2,6 C 3,3 C 11,3 km/h (2 Bft) 96,23 %
03.11.2016 03:44 3,5 C 93 % 1018,7 hPa 0,0 l/m 5,2 km/h (1 Bft) SW 226 0 min 0,000 mm 0,0 UV-I 0 W/m 2,5 C 3,5 C 8,0 km/h (2 Bft) 97,14 %
03.11.2016 03:46 3,5 C 93 % 1018,7 hPa 0,0 l/m 5,9 km/h (2 Bft) SW 219 0 min 0,000 mm 0,0 UV-I 0 W/m 2,5 C 3,5 C 9,7 km/h (2 Bft) 98,11 %
03.11.2016 03:48 3,5 C 93 % 1018,7 hPa 0,0 l/m 7,7 km/h (2 Bft) W-SW 253 0 min 0,000 mm 0,0 UV-I 0 W/m 2,5 C 2,3 C 11,3 km/h (2 Bft) 96,23 %
03.11.2016 03:50 3,5 C 93 % 1018,7 hPa 0,0 l/m 6,8 km/h (2 Bft) SW 215 0 min 0,000 mm 0,0 UV-I 0 W/m 2,5 C 3,1 C 11,3 km/h (2 Bft) 97,56 %
03.11.2016 03:52 3,5 C 94 % 1018,7 hPa 0,0 l/m 10,4 km/h (2 Bft) W-SW 251 0 min 0,000 mm 0,0 UV-I 0 W/m 2,6 C 0,1 C 14,5 km/h (3 Bft) 98,11 %
03.11.2016 03:54 3,5 C 94 % 1018,8 hPa 0,0 l/m 9,2 km/h (2 Bft) W-SW 242 0 min 0,000 mm 0,0 UV-I 0 W/m 2,6 C 1,0 C 14,5 km/h (3 Bft) 97,56 %
03.11.2016 03:56 3,6 C 94 % 1018,7 hPa 0,0 l/m 10,5 km/h (2 Bft) SW 236 0 min 0,000 mm 0,0 UV-I 0 W/m 2,7 C 0,2 C 14,5 km/h (3 Bft) 97,62 %
03.11.2016 03:58 3,6 C 94 % 1018,7 hPa 0,0 l/m 12,1 km/h (2 Bft) W-SW 240 0 min 0,000 mm 0,0 UV-I 0 W/m 2,7 C -0,9 C 19,3 km/h (3 Bft) 95,74 %
03.11.2016 04:00 3,6 C 94 % 1018,7 hPa 0,0 l/m 12,8 km/h (3 Bft) SW 229 0 min 0,000 mm 0,0 UV-I 0 W/m 2,7 C -1,4 C 17,7 km/h (3 Bft) 97,73 %
03.11.2016 04:02 3,6 C 94 % 1018,7 hPa 0,0 l/m 8,8 km/h (2 Bft) W-SW 254 0 min 0,000 mm 0,0 UV-I 0 W/m 2,7 C 1,5 C 11,3 km/h (2 Bft) 96,67 %
03.11.2016 04:04 3,6 C 94 % 1018,7 hPa 0,0 l/m 9,8 km/h (2 Bft) SW 226 0 min 0,000 mm 0,0 UV-I 0 W/m 2,7 C 0,7 C 14,5 km/h (3 Bft) 98,00 %
03.11.2016 04:06 3,7 C 93 % 1018,8 hPa 0,0 l/m 12,7 km/h (3 Bft) SW 232 0 min 0,000 mm 0,0 UV-I 0 W/m 2,7 C -1,2 C 17,7 km/h (3 Bft) 100,00 %
03.11.2016 04:08 3,7 C 93 % 1018,8 hPa 0,0 l/m 11,6 km/h (2 Bft) W-SW 253 0 min 0,000 mm 0,0 UV-I 0 W/m 2,7 C -0,5 C 14,5 km/h (3 Bft) 98,21 %
03.11.2016 04:10 3,6 C 93 % 1018,9 hPa 0,0 l/m 13,0 km/h (3 Bft) W 269 0 min 0,000 mm 0,0 UV-I 0 W/m 2,6 C -1,5 C 17,7 km/h (3 Bft) 97,37 %
03.11.2016 04:12 3,6 C 93 % 1018,9 hPa 0,0 l/m 13,7 km/h (3 Bft) W-SW 253 0 min 0,000 mm 0,0 UV-I 0 W/m 2,6 C -1,9 C 17,7 km/h (3 Bft) 100,00 %
03.11.2016 04:14 3,6 C 93 % 1018,9 hPa 0,0 l/m 9,4 km/h (2 Bft) SW 223 0 min 0,000 mm 0,0 UV-I 0 W/m 2,6 C 1,0 C 12,9 km/h (3 Bft) 100,00 %
03.11.2016 04:16 3,6 C 93 % 1018,9 hPa 0,0 l/m 9,1 km/h (2 Bft) W-SW 242 0 min 0,000 mm 0,0 UV-I 0 W/m 2,6 C 1,2 C 14,5 km/h (3 Bft) 98,46 %
03.11.2016 04:18 3,6 C 93 % 1018,9 hPa 0,0 l/m 9,1 km/h (2 Bft) W-SW 241 0 min 0,000 mm 0,0 UV-I 0 W/m 2,6 C 1,2 C 14,5 km/h (3 Bft) 100,00 %
03.11.2016 04:20 3,6 C 93 % 1018,9 hPa 0,0 l/m 9,7 km/h (2 Bft) W-SW 254 0 min 0,000 mm 0,0 UV-I 0 W/m 2,6 C 0,8 C 19,3 km/h (3 Bft) 100,00 %
03.11.2016 04:22 3,6 C 93 % 1018,9 hPa 0,0 l/m 9,0 km/h (2 Bft) SW 216 0 min 0,000 mm 0,0 UV-I 0 W/m 2,6 C 1,3 C 16,1 km/h (3 Bft) 100,00 %
03.11.2016 04:24 3,6 C 93 % 1019,0 hPa 0,0 l/m 9,7 km/h (2 Bft) SW 223 0 min 0,000 mm 0,0 UV-I 0 W/m 2,6 C 0,8 C 14,5 km/h (3 Bft) 97,73 %
03.11.2016 04:26 3,5 C 93 % 1018,9 hPa 0,0 l/m 9,3 km/h (2 Bft) S-SW 209 0 min 0,000 mm 0,0 UV-I 0 W/m 2,5 C 1,0 C 14,5 km/h (3 Bft) 100,00 %
03.11.2016 04:28 3,5 C 93 % 1019,1 hPa 0,0 l/m 9,1 km/h (2 Bft) SW 232 0 min 0,000 mm 0,0 UV-I 0 W/m 2,5 C 1,1 C 12,9 km/h (3 Bft) 100,00 %
03.11.2016 04:30 3,5 C 93 % 1019,1 hPa 0,0 l/m 9,8 km/h (2 Bft) SW 234 0 min 0,000 mm 0,0 UV-I 0 W/m 2,5 C 0,6 C 16,1 km/h (3 Bft) 100,00 %
03.11.2016 04:32 3,4 C 93 % 1019,1 hPa 0,0 l/m 11,3 km/h (2 Bft) W-SW 248 0 min 0,000 mm 0,0 UV-I 0 W/m 2,4 C -0,6 C 16,1 km/h (3 Bft) 100,00 %
03.11.2016 04:34 3,4 C 93 % 1019,1 hPa 0,0 l/m 11,9 km/h (2 Bft) W-SW 245 0 min 0,000 mm 0,0 UV-I 0 W/m 2,4 C -1,0 C 17,7 km/h (3 Bft) 98,11 %
03.11.2016 04:36 3,4 C 93 % 1019,2 hPa 0,0 l/m 10,8 km/h (2 Bft) W-SW 238 0 min 0,000 mm 0,0 UV-I 0 W/m 2,4 C -0,3 C 16,1 km/h (3 Bft) 100,00 %
03.11.2016 04:38 3,4 C 93 % 1019,2 hPa 0,0 l/m 12,4 km/h (3 Bft) SW 231 0 min 0,000 mm 0,0 UV-I 0 W/m 2,4 C -1,3 C 19,3 km/h (3 Bft) 97,62 %
03.11.2016 04:40 3,4 C 93 % 1019,2 hPa 0,0 l/m 11,9 km/h (2 Bft) W-SW 238 0 min 0,000 mm 0,0 UV-I 0 W/m 2,4 C -1,0 C 16,1 km/h (3 Bft) 98,21 %
03.11.2016 04:42 3,4 C 93 % 1019,2 hPa 0,0 l/m 14,0 km/h (3 Bft) SW 215 0 min 0,000 mm 0,0 UV-I 0 W/m 2,4 C -2,3 C 24,1 km/h (4 Bft) 100,00 %
03.11.2016 04:44 3,4 C 93 % 1019,2 hPa 0,0 l/m 13,9 km/h (3 Bft) W-SW 254 0 min 0,000 mm 0,0 UV-I 0 W/m 2,4 C -2,2 C 19,3 km/h (3 Bft) 100,00 %
03.11.2016 04:46 3,4 C 93 % 1019,2 hPa 0,0 l/m 12,4 km/h (3 Bft) SW 235 0 min 0,000 mm 0,0 UV-I 0 W/m 2,4 C -1,3 C 19,3 km/h (3 Bft) 95,74 %
03.11.2016 04:48 3,4 C 93 % 1019,2 hPa 0,0 l/m 12,9 km/h (3 Bft) SW 236 0 min 0,000 mm 0,0 UV-I 0 W/m 2,4 C -1,7 C 17,7 km/h (3 Bft) 100,00 %
03.11.2016 04:50 3,4 C 93 % 1019,2 hPa 0,0 l/m 12,8 km/h (3 Bft) W-SW 254 0 min 0,000 mm 0,0 UV-I 0 W/m 2,4 C -1,6 C 17,7 km/h (3 Bft) 98,53 %
03.11.2016 04:52 3,4 C 93 % 1019,2 hPa 0,0 l/m 13,4 km/h (3 Bft) SW 229 0 min 0,000 mm 0,0 UV-I 0 W/m 2,4 C -2,0 C 20,9 km/h (4 Bft) 100,00 %
03.11.2016 04:54 3,4 C 93 % 1019,2 hPa 0,0 l/m 12,5 km/h (3 Bft) SW 233 0 min 0,000 mm 0,0 UV-I 0 W/m 2,4 C -1,4 C 16,1 km/h (3 Bft) 100,00 %
03.11.2016 04:56 3,3 C 93 % 1019,2 hPa 0,0 l/m 11,8 km/h (2 Bft) W-SW 254 0 min 0,000 mm 0,0 UV-I 0 W/m 2,3 C -1,1 C 17,7 km/h (3 Bft) 100,00 %
03.11.2016 04:58 3,3 C 93 % 1019,2 hPa 0,0 l/m 12,3 km/h (3 Bft) SW 236 0 min 0,000 mm 0,0 UV-I 0 W/m 2,3 C -1,4 C 19,3 km/h (3 Bft) 100,00 %
03.11.2016 05:00 3,3 C 93 % 1019,1 hPa 0,0 l/m 12,8 km/h (3 Bft) S-SW 205 0 min 0,000 mm 0,0 UV-I 0 W/m 2,3 C -1,7 C 20,9 km/h (4 Bft) 100,00 %
03.11.2016 05:02 3,3 C 93 % 1019,2 hPa 0,0 l/m 13,1 km/h (3 Bft) W-SW 257 0 min 0,000 mm 0,0 UV-I 0 W/m 2,3 C -1,9 C 20,9 km/h (4 Bft) 100,00 %
03.11.2016 05:04 3,3 C 93 % 1019,2 hPa 0,0 l/m 13,9 km/h (3 Bft) W-SW 238 0 min 0,000 mm 0,0 UV-I 0 W/m 2,3 C -2,4 C 19,3 km/h (3 Bft) 100,00 %
03.11.2016 05:06 3,3 C 93 % 1019,2 hPa 0,0 l/m 11,1 km/h (2 Bft) W 260 0 min 0,000 mm 0,0 UV-I 0 W/m 2,3 C -0,6 C 16,1 km/h (3 Bft) 97,37 %
03.11.2016 05:08 3,3 C 93 % 1019,3 hPa 0,0 l/m 11,4 km/h (2 Bft) W-SW 252 0 min 0,000 mm 0,0 UV-I 0 W/m 2,3 C -0,8 C 16,1 km/h (3 Bft) 100,00 %
03.11.2016 05:10 3,3 C 93 % 1019,3 hPa 0,0 l/m 11,1 km/h (2 Bft) W-SW 237 0 min 0,000 mm 0,0 UV-I 0 W/m 2,3 C -0,6 C 16,1 km/h (3 Bft) 100,00 %
03.11.2016 05:12 3,4 C 93 % 1019,4 hPa 0,0 l/m 12,3 km/h (3 Bft) W-SW 253 0 min 0,000 mm 0,0 UV-I 0 W/m 2,4 C -1,3 C 20,9 km/h (4 Bft) 98,00 %
03.11.2016 05:14 3,4 C 93 % 1019,4 hPa 0,0 l/m 9,7 km/h (2 Bft) W-SW 244 0 min 0,000 mm 0,0 UV-I 0 W/m 2,4 C 0,5 C 14,5 km/h (3 Bft) 100,00 %
03.11.2016 05:16 3,4 C 93 % 1019,4 hPa 0,0 l/m 10,5 km/h (2 Bft) W-SW 244 0 min 0,000 mm 0,0 UV-I 0 W/m 2,4 C -0,1 C 14,5 km/h (3 Bft) 100,00 %
03.11.2016 05:18 3,5 C 93 % 1019,4 hPa 0,0 l/m 10,0 km/h (2 Bft) W 263 0 min 0,000 mm 0,0 UV-I 0 W/m 2,5 C 0,4 C 14,5 km/h (3 Bft) 97,62 %
03.11.2016 05:20 3,6 C 93 % 1019,5 hPa 0,0 l/m 10,9 km/h (2 Bft) SW 227 0 min 0,000 mm 0,0 UV-I 0 W/m 2,6 C -0,1 C 19,3 km/h (3 Bft) 100,00 %
03.11.2016 05:22 3,6 C 93 % 1019,5 hPa 0,0 l/m 10,0 km/h (2 Bft) W-SW 243 0 min 0,000 mm 0,0 UV-I 0 W/m 2,6 C 0,5 C 16,1 km/h (3 Bft) 100,00 %
03.11.2016 05:24 3,7 C 93 % 1019,5 hPa 0,0 l/m 11,1 km/h (2 Bft) SW 229 0 min 0,000 mm 0,0 UV-I 0 W/m 2,7 C -0,1 C 16,1 km/h (3 Bft) 98,11 %
03.11.2016 05:26 3,7 C 93 % 1019,5 hPa 0,0 l/m 11,5 km/h (2 Bft) W-SW 247 0 min 0,000 mm 0,0 UV-I 0 W/m 2,7 C -0,4 C 16,1 km/h (3 Bft) 97,87 %
03.11.2016 05:28 3,7 C 92 % 1019,4 hPa 0,0 l/m 10,6 km/h (2 Bft) SW 229 0 min 0,000 mm 0,0 UV-I 0 W/m 2,5 C 0,2 C 14,5 km/h (3 Bft) 100,00 %
03.11.2016 05:30 3,7 C 92 % 1019,5 hPa 0,0 l/m 13,4 km/h (3 Bft) SW 228 0 min 0,000 mm 0,0 UV-I 0 W/m 2,5 C -1,6 C 20,9 km/h (4 Bft) 100,00 %
03.11.2016 05:32 3,7 C 92 % 1019,5 hPa 0,0 l/m 13,2 km/h (3 Bft) W-SW 242 0 min 0,000 mm 0,0 UV-I 0 W/m 2,5 C -1,5 C 19,3 km/h (3 Bft) 100,00 %
03.11.2016 05:34 3,8 C 92 % 1019,5 hPa 0,0 l/m 11,6 km/h (2 Bft) SW 224 0 min 0,000 mm 0,0 UV-I 0 W/m 2,6 C -0,4 C 16,1 km/h (3 Bft) 97,73 %
03.11.2016 05:36 3,8 C 92 % 1019,4 hPa 0,0 l/m 13,0 km/h (3 Bft) SW 231 0 min 0,000 mm 0,0 UV-I 0 W/m 2,6 C -1,2 C 17,7 km/h (3 Bft) 100,00 %
03.11.2016 05:38 3,8 C 92 % 1019,4 hPa 0,0 l/m 11,2 km/h (2 Bft) SW 225 0 min 0,000 mm 0,0 UV-I 0 W/m 2,6 C -0,1 C 17,7 km/h (3 Bft) 100,00 %
03.11.2016 05:40 3,8 C 92 % 1019,4 hPa 0,0 l/m 13,1 km/h (3 Bft) SW 220 0 min 0,000 mm 0,0 UV-I 0 W/m 2,6 C -1,3 C 17,7 km/h (3 Bft) 97,56 %
03.11.2016 05:42 3,8 C 92 % 1019,4 hPa 0,0 l/m 12,5 km/h (3 Bft) W 263 0 min 0,000 mm 0,0 UV-I 0 W/m 2,6 C -0,9 C 20,9 km/h (4 Bft) 97,87 %
03.11.2016 05:44 3,8 C 92 % 1019,4 hPa 0,0 l/m 9,6 km/h (2 Bft) W-SW 248 0 min 0,000 mm 0,0 UV-I 0 W/m 2,6 C 1,0 C 14,5 km/h (3 Bft) 97,44 %
03.11.2016 05:46 3,8 C 92 % 1019,4 hPa 0,0 l/m 13,1 km/h (3 Bft) W-SW 239 0 min 0,000 mm 0,0 UV-I 0 W/m 2,6 C -1,3 C 17,7 km/h (3 Bft) 95,45 %
03.11.2016 05:48 3,8 C 92 % 1019,5 hPa 0,0 l/m 12,5 km/h (3 Bft) W 273 0 min 0,000 mm 0,0 UV-I 0 W/m 2,6 C -0,9 C 19,3 km/h (3 Bft) 98,21 %
03.11.2016 05:50 3,8 C 92 % 1019,4 hPa 0,0 l/m 13,4 km/h (3 Bft) W-SW 255 0 min 0,000 mm 0,0 UV-I 0 W/m 2,6 C -1,5 C 20,9 km/h (4 Bft) 97,56 %
03.11.2016 05:52 3,9 C 91 % 1019,5 hPa 0,0 l/m 14,8 km/h (3 Bft) W-SW 248 0 min 0,000 mm 0,0 UV-I 0 W/m 2,6 C -2,1 C 20,9 km/h (4 Bft) 96,23 %
03.11.2016 05:54 3,9 C 91 % 1019,5 hPa 0,0 l/m 10,4 km/h (2 Bft) SW 220 0 min 0,000 mm 0,0 UV-I 0 W/m 2,6 C 0,6 C 17,7 km/h (3 Bft) 97,56 %
03.11.2016 05:56 3,9 C 91 % 1019,5 hPa 0,0 l/m 14,6 km/h (3 Bft) W-SW 246 0 min 0,000 mm 0,0 UV-I 0 W/m 2,6 C -2,0 C 20,9 km/h (4 Bft) 97,87 %
03.11.2016 05:58 3,9 C 91 % 1019,5 hPa 0,0 l/m 14,4 km/h (3 Bft) S-SW 211 0 min 0,000 mm 0,0 UV-I 0 W/m 2,6 C -1,9 C 22,5 km/h (4 Bft) 97,62 %
03.11.2016 06:00 4,0 C 91 % 1019,5 hPa 0,0 l/m 15,9 km/h (3 Bft) SW 227 0 min 0,000 mm 0,0 UV-I 0 W/m 2,7 C -2,6 C 24,1 km/h (4 Bft) 98,18 %
03.11.2016 06:02 4,0 C 91 % 1019,5 hPa 0,0 l/m 12,9 km/h (3 Bft) SW 236 0 min 0,000 mm 0,0 UV-I 0 W/m 2,7 C -1,0 C 17,7 km/h (3 Bft) 97,62 %
03.11.2016 06:04 4,0 C 91 % 1019,5 hPa 0,0 l/m 14,2 km/h (3 Bft) W-SW 253 0 min 0,000 mm 0,0 UV-I 0 W/m 2,7 C -1,7 C 19,3 km/h (3 Bft) 98,11 %
03.11.2016 06:06 4,0 C 91 % 1019,5 hPa 0,0 l/m 12,1 km/h (2 Bft) W-SW 243 0 min 0,000 mm 0,0 UV-I 0 W/m 2,7 C -0,5 C 17,7 km/h (3 Bft) 97,37 %
03.11.2016 06:08 4,0 C 90 % 1019,5 hPa 0,0 l/m 13,0 km/h (3 Bft) SW 229 0 min 0,000 mm 0,0 UV-I 0 W/m 2,5 C -1,0 C 17,7 km/h (3 Bft) 96,43 %
03.11.2016 06:10 4,1 C 90 % 1019,5 hPa 0,0 l/m 13,7 km/h (3 Bft) SW 227 0 min 0,000 mm 0,0 UV-I 0 W/m 2,6 C -1,3 C 19,3 km/h (3 Bft) 98,00 %
03.11.2016 06:12 4,1 C 90 % 1019,5 hPa 0,0 l/m 12,8 km/h (3 Bft) W-SW 242 0 min 0,000 mm 0,0 UV-I 0 W/m 2,6 C -0,8 C 17,7 km/h (3 Bft) 97,56 %
03.11.2016 06:14 4,1 C 90 % 1019,5 hPa 0,0 l/m 14,7 km/h (3 Bft) SW 229 0 min 0,000 mm 0,0 UV-I 0 W/m 2,6 C -1,9 C 22,5 km/h (4 Bft) 97,73 %
03.11.2016 06:16 4,1 C 90 % 1019,5 hPa 0,0 l/m 14,1 km/h (3 Bft) SW 231 0 min 0,000 mm 0,0 UV-I 0 W/m 2,6 C -1,5 C 20,9 km/h (4 Bft) 98,21 %
03.11.2016 06:18 4,1 C 90 % 1019,6 hPa 0,0 l/m 9,8 km/h (2 Bft) SW 216 0 min 0,000 mm 0,0 UV-I 0 W/m 2,6 C 1,2 C 16,1 km/h (3 Bft) 100,00 %
03.11.2016 06:20 4,1 C 90 % 1019,6 hPa 0,0 l/m 11,0 km/h (2 Bft) W-SW 238 0 min 0,000 mm 0,0 UV-I 0 W/m 2,6 C 0,4 C 14,5 km/h (3 Bft) 100,00 %
03.11.2016 06:22 4,1 C 90 % 1019,6 hPa 0,0 l/m 13,0 km/h (3 Bft) W-SW 257 0 min 0,000 mm 0,0 UV-I 0 W/m 2,6 C -0,9 C 20,9 km/h (4 Bft) 100,00 %
03.11.2016 06:24 4,2 C 90 % 1019,7 hPa 0,0 l/m 11,4 km/h (2 Bft) SW 232 0 min 0,000 mm 0,0 UV-I 0 W/m 2,7 C 0,2 C 17,7 km/h (3 Bft) 98,00 %
03.11.2016 06:26 4,2 C 90 % 1019,7 hPa 0,0 l/m 12,8 km/h (3 Bft) W-SW 241 0 min 0,000 mm 0,0 UV-I 0 W/m 2,7 C -0,7 C 19,3 km/h (3 Bft) 100,00 %
03.11.2016 06:28 4,2 C 90 % 1019,7 hPa 0,0 l/m 13,5 km/h (3 Bft) SW 214 0 min 0,000 mm 0,0 UV-I 0 W/m 2,7 C -1,1 C 20,9 km/h (4 Bft) 100,00 %
03.11.2016 06:30 4,2 C 90 % 1019,8 hPa 0,0 l/m 10,4 km/h (2 Bft) W-SW 242 0 min 0,000 mm 0,0 UV-I 0 W/m 2,7 C 0,9 C 14,5 km/h (3 Bft) 100,00 %
03.11.2016 06:32 4,3 C 90 % 1019,8 hPa 0,0 l/m 13,3 km/h (3 Bft) W-SW 254 0 min 0,000 mm 0,0 UV-I 0 W/m 2,8 C -0,8 C 19,3 km/h (3 Bft) 97,87 %
03.11.2016 06:34 4,3 C 90 % 1019,9 hPa 0,0 l/m 9,8 km/h (2 Bft) W-SW 238 0 min 0,000 mm 0,0 UV-I 0 W/m 2,8 C 1,4 C 17,7 km/h (3 Bft) 100,00 %
03.11.2016 06:36 4,3 C 90 % 1019,9 hPa 0,0 l/m 9,5 km/h (2 Bft) W-SW 240 0 min 0,000 mm 0,0 UV-I 0 W/m 2,8 C 1,7 C 14,5 km/h (3 Bft) 100,00 %
03.11.2016 06:38 4,3 C 90 % 1019,9 hPa 0,0 l/m 8,3 km/h (2 Bft) SW 223 0 min 0,000 mm 0,0 UV-I 0 W/m 2,8 C 2,6 C 12,9 km/h (3 Bft) 100,00 %
03.11.2016 06:40 4,3 C 90 % 1020,0 hPa 0,0 l/m 10,3 km/h (2 Bft) SW 233 0 min 0,000 mm 0,0 UV-I 0 W/m 2,8 C 1,1 C 12,9 km/h (3 Bft) 100,00 %
03.11.2016 06:42 4,3 C 90 % 1020,0 hPa 0,0 l/m 10,9 km/h (2 Bft) W-SW 250 0 min 0,000 mm 0,0 UV-I 0 W/m 2,8 C 0,7 C 16,1 km/h (3 Bft) 100,00 %
03.11.2016 06:44 4,3 C 90 % 1020,0 hPa 0,0 l/m 10,0 km/h (2 Bft) S 191 0 min 0,000 mm 0,0 UV-I 0 W/m 2,8 C 1,3 C 14,5 km/h (3 Bft) 97,14 %
03.11.2016 06:46 4,3 C 90 % 1020,0 hPa 0,0 l/m 13,0 km/h (3 Bft) W 267 0 min 0,000 mm 0,0 UV-I 0 W/m 2,8 C -0,7 C 19,3 km/h (3 Bft) 100,00 %
03.11.2016 06:48 4,3 C 90 % 1020,1 hPa 0,0 l/m 8,9 km/h (2 Bft) SW 232 0 min 0,000 mm 0,0 UV-I 0 W/m 2,8 C 2,1 C 14,5 km/h (3 Bft) 100,00 %
03.11.2016 06:50 4,3 C 89 % 1020,1 hPa 0,0 l/m 10,2 km/h (2 Bft) SW 229 0 min 0,000 mm 0,0 UV-I 4 W/m 2,7 C 1,2 C 16,1 km/h (3 Bft) 100,00 %
03.11.2016 06:52 4,3 C 89 % 1020,1 hPa 0,0 l/m 8,0 km/h (2 Bft) W-SW 247 0 min 0,000 mm 0,0 UV-I 5 W/m 2,7 C 2,9 C 12,9 km/h (3 Bft) 98,46 %
03.11.2016 06:54 4,4 C 90 % 1020,1 hPa 0,0 l/m 7,6 km/h (2 Bft) S-SW 210 0 min 0,000 mm 0,0 UV-I 5 W/m 2,9 C 3,3 C 12,9 km/h (3 Bft) 97,87 %
03.11.2016 06:56 4,3 C 90 % 1020,1 hPa 0,0 l/m 7,3 km/h (2 Bft) W-SW 238 0 min 0,000 mm 0,0 UV-I 5 W/m 2,8 C 3,5 C 11,3 km/h (2 Bft) 100,00 %
03.11.2016 06:58 4,3 C 90 % 1020,2 hPa 0,0 l/m 11,6 km/h (2 Bft) SW 228 0 min 0,000 mm 0,0 UV-I 5 W/m 2,8 C 0,2 C 17,7 km/h (3 Bft) 98,00 %
03.11.2016 07:00 4,3 C 90 % 1020,2 hPa 0,0 l/m 9,3 km/h (2 Bft) W-SW 246 0 min 0,000 mm 0,0 UV-I 5 W/m 2,8 C 1,8 C 14,5 km/h (3 Bft) 100,00 %
03.11.2016 07:02 4,3 C 90 % 1020,2 hPa 0,0 l/m 8,9 km/h (2 Bft) SW 217 0 min 0,000 mm 0,0 UV-I 5 W/m 2,8 C 2,1 C 14,5 km/h (3 Bft) 100,00 %
03.11.2016 07:04 4,4 C 89 % 1020,3 hPa 0,0 l/m 6,8 km/h (2 Bft) SW 236 0 min 0,000 mm 0,0 UV-I 5 W/m 2,7 C 4,1 C 12,9 km/h (3 Bft) 100,00 %
03.11.2016 07:06 4,4 C 89 % 1020,3 hPa 0,0 l/m 7,0 km/h (2 Bft) SW 231 0 min 0,000 mm 0,0 UV-I 5 W/m 2,7 C 3,9 C 12,9 km/h (3 Bft) 100,00 %
03.11.2016 07:08 4,4 C 89 % 1020,3 hPa 0,0 l/m 5,7 km/h (1 Bft) SW 228 0 min 0,000 mm 0,0 UV-I 5 W/m 2,7 C 4,4 C 9,7 km/h (2 Bft) 100,00 %
03.11.2016 07:10 4,4 C 89 % 1020,4 hPa 0,0 l/m 5,7 km/h (1 Bft) W-SW 242 0 min 0,000 mm 0,0 UV-I 5 W/m 2,7 C 4,4 C 11,3 km/h (2 Bft) 100,00 %
03.11.2016 07:12 4,4 C 89 % 1020,4 hPa 0,0 l/m 8,3 km/h (2 Bft) SW 236 0 min 0,000 mm 0,0 UV-I 5 W/m 2,7 C 2,7 C 14,5 km/h (3 Bft) 100,00 %
03.11.2016 07:14 4,4 C 89 % 1020,4 hPa 0,0 l/m 8,1 km/h (2 Bft) W-SW 251 0 min 0,000 mm 0,0 UV-I 5 W/m 2,7 C 2,9 C 11,3 km/h (2 Bft) 100,00 %
03.11.2016 07:16 4,4 C 89 % 1020,4 hPa 0,0 l/m 7,3 km/h (2 Bft) W-SW 246 0 min 0,000 mm 0,0 UV-I 6 W/m 2,7 C 3,6 C 12,9 km/h (3 Bft) 100,00 %
03.11.2016 07:18 4,4 C 89 % 1020,5 hPa 0,0 l/m 7,6 km/h (2 Bft) W-SW 238 0 min 0,000 mm 0,0 UV-I 7 W/m 2,7 C 3,3 C 12,9 km/h (3 Bft) 98,08 %
03.11.2016 07:20 4,5 C 89 % 1020,5 hPa 0,0 l/m 7,9 km/h (2 Bft) W-SW 249 0 min 0,000 mm 0,0 UV-I 7 W/m 2,8 C 3,2 C 12,9 km/h (3 Bft) 100,00 %
03.11.2016 07:22 4,5 C 89 % 1020,5 hPa 0,0 l/m 7,5 km/h (2 Bft) W-SW 243 0 min 0,000 mm 0,0 UV-I 8 W/m 2,8 C 3,5 C 12,9 km/h (3 Bft) 100,00 %
03.11.2016 07:24 4,5 C 88 % 1020,6 hPa 0,0 l/m 5,0 km/h (1 Bft) W-SW 241 0 min 0,000 mm 0,0 UV-I 9 W/m 2,7 C 4,5 C 8,0 km/h (2 Bft) 100,00 %
03.11.2016 07:26 4,6 C 88 % 1020,6 hPa 0,0 l/m 6,0 km/h (2 Bft) W-SW 255 0 min 0,000 mm 0,0 UV-I 9 W/m 2,8 C 4,6 C 11,3 km/h (2 Bft) 100,00 %
03.11.2016 07:28 4,6 C 88 % 1020,7 hPa 0,0 l/m 8,0 km/h (2 Bft) SW 231 0 min 0,000 mm 0,0 UV-I 9 W/m 2,8 C 3,2 C 14,5 km/h (3 Bft) 100,00 %
03.11.2016 07:30 4,6 C 88 % 1020,6 hPa 0,0 l/m 9,7 km/h (2 Bft) SW 218 0 min 0,000 mm 0,0 UV-I 9 W/m 2,8 C 1,8 C 16,1 km/h (3 Bft) 98,00 %
03.11.2016 07:32 4,6 C 88 % 1020,7 hPa 0,0 l/m 7,0 km/h (2 Bft) SW 232 0 min 0,000 mm 0,0 UV-I 9 W/m 2,8 C 4,1 C 11,3 km/h (2 Bft) 100,00 %
03.11.2016 07:34 4,6 C 88 % 1020,7 hPa 0,0 l/m 10,1 km/h (2 Bft) W-SW 258 0 min 0,000 mm 0,0 UV-I 9 W/m 2,8 C 1,6 C 17,7 km/h (3 Bft) 100,00 %
03.11.2016 07:36 4,7 C 88 % 1020,8 hPa 0,0 l/m 11,0 km/h (2 Bft) W-SW 258 0 min 0,000 mm 0,0 UV-I 11 W/m 2,9 C 1,1 C 17,7 km/h (3 Bft) 100,00 %
03.11.2016 07:38 4,7 C 88 % 1020,8 hPa 0,0 l/m 11,5 km/h (2 Bft) SW 231 0 min 0,000 mm 0,0 UV-I 12 W/m 2,9 C 0,7 C 17,7 km/h (3 Bft) 100,00 %
03.11.2016 07:40 4,7 C 87 % 1020,8 hPa 0,0 l/m 7,1 km/h (2 Bft) W-SW 252 0 min 0,000 mm 0,0 UV-I 11 W/m 2,7 C 4,1 C 11,3 km/h (2 Bft) 97,87 %
03.11.2016 07:42 4,7 C 87 % 1020,8 hPa 0,0 l/m 7,6 km/h (2 Bft) W 259 0 min 0,000 mm 0,0 UV-I 11 W/m 2,7 C 3,6 C 14,5 km/h (3 Bft) 100,00 %
03.11.2016 07:44 4,7 C 88 % 1020,8 hPa 0,0 l/m 9,1 km/h (2 Bft) W-SW 253 0 min 0,000 mm 0,0 UV-I 9 W/m 2,9 C 2,4 C 14,5 km/h (3 Bft) 100,00 %
03.11.2016 07:46 4,7 C 88 % 1020,9 hPa 0,0 l/m 8,4 km/h (2 Bft) SW 235 0 min 0,000 mm 0,0 UV-I 8 W/m 2,9 C 3,0 C 14,5 km/h (3 Bft) 100,00 %
03.11.2016 07:48 4,7 C 88 % 1020,9 hPa 0,0 l/m 5,4 km/h (1 Bft) W-SW 257 0 min 0,000 mm 0,0 UV-I 10 W/m 2,9 C 4,7 C 8,0 km/h (2 Bft) 100,00 %
03.11.2016 07:50 4,7 C 88 % 1020,9 hPa 0,0 l/m 6,4 km/h (2 Bft) W-SW 246 0 min 0,000 mm 0,0 UV-I 12 W/m 2,9 C 4,7 C 11,3 km/h (2 Bft) 100,00 %
03.11.2016 07:52 4,7 C 88 % 1020,9 hPa 0,0 l/m 4,2 km/h (1 Bft) W-SW 254 0 min 0,000 mm 0,0 UV-I 14 W/m 2,9 C 4,7 C 6,4 km/h (2 Bft) 96,43 %
03.11.2016 07:54 4,7 C 88 % 1020,9 hPa 0,0 l/m 4,0 km/h (1 Bft) W-SW 237 0 min 0,000 mm 0,0 UV-I 18 W/m 2,9 C 4,7 C 6,4 km/h (2 Bft) 97,87 %
03.11.2016 07:56 4,7 C 88 % 1020,9 hPa 0,0 l/m 6,4 km/h (2 Bft) SW 227 0 min 0,000 mm 0,0 UV-I 21 W/m 2,9 C 4,7 C 11,3 km/h (2 Bft) 100,00 %
03.11.2016 07:58 4,7 C 88 % 1020,9 hPa 0,0 l/m 5,3 km/h (1 Bft) W-SW 245 0 min 0,000 mm 0,0 UV-I 24 W/m 2,9 C 4,7 C 6,4 km/h (2 Bft) 95,45 %
03.11.2016 08:00 4,7 C 88 % 1021,0 hPa 0,0 l/m 5,5 km/h (1 Bft) SW 224 0 min 0,000 mm 0,0 UV-I 25 W/m 2,9 C 4,7 C 11,3 km/h (2 Bft) 97,14 %
03.11.2016 08:02 4,7 C 88 % 1021,0 hPa 0,0 l/m 6,1 km/h (2 Bft) W-SW 250 0 min 0,000 mm 0,0 UV-I 22 W/m 2,9 C 4,7 C 12,9 km/h (3 Bft) 97,62 %
03.11.2016 08:04 4,7 C 88 % 1021,0 hPa 0,0 l/m 6,2 km/h (2 Bft) SW 227 0 min 0,000 mm 0,0 UV-I 19 W/m 2,9 C 4,7 C 9,7 km/h (2 Bft) 98,21 %
03.11.2016 08:06 4,7 C 88 % 1021,0 hPa 0,0 l/m 8,8 km/h (2 Bft) W-SW 244 0 min 0,000 mm 0,0 UV-I 20 W/m 2,9 C 2,6 C 14,5 km/h (3 Bft) 97,56 %
03.11.2016 08:09 4,7 C 89 % 1021,0 hPa 0,0 l/m 5,3 km/h (1 Bft) SW 219 0 min 0,000 mm 0,0 UV-I 22 W/m 3,0 C 4,7 C 8,0 km/h (2 Bft) 97,14 %
03.11.2016 08:10 4,7 C 89 % 1021,0 hPa 0,0 l/m 4,4 km/h (1 Bft) SW 232 0 min 0,000 mm 0,0 UV-I 25 W/m 3,0 C 4,7 C 6,4 km/h (2 Bft) 96,30 %
03.11.2016 08:12 4,7 C 89 % 1021,0 hPa 0,0 l/m 4,5 km/h (1 Bft) SW 223 0 min 0,000 mm 0,0 UV-I 27 W/m 3,0 C 4,7 C 6,4 km/h (2 Bft) 97,56 %
03.11.2016 08:14 4,7 C 89 % 1021,1 hPa 0,0 l/m 5,2 km/h (1 Bft) SW 227 0 min 0,000 mm 0,0 UV-I 35 W/m 3,0 C 4,7 C 9,7 km/h (2 Bft) 96,00 %
03.11.2016 08:16 4,7 C 89 % 1021,1 hPa 0,0 l/m 6,9 km/h (2 Bft) SW 217 0 min 0,000 mm 0,0 UV-I 40 W/m 3,0 C 4,3 C 11,3 km/h (2 Bft) 98,00 %
03.11.2016 08:18 4,7 C 89 % 1021,1 hPa 0,0 l/m 6,8 km/h (2 Bft) S-SW 196 0 min 0,000 mm 0,0 UV-I 39 W/m 3,0 C 4,4 C 11,3 km/h (2 Bft) 97,30 %
03.11.2016 08:20 4,8 C 89 % 1021,1 hPa 0,0 l/m 7,6 km/h (2 Bft) SW 236 0 min 0,000 mm 0,0 UV-I 33 W/m 3,1 C 3,7 C 12,9 km/h (3 Bft) 98,11 %
03.11.2016 08:22 4,7 C 89 % 1021,1 hPa 0,0 l/m 8,6 km/h (2 Bft) SW 223 0 min 0,000 mm 0,0 UV-I 32 W/m 3,0 C 2,8 C 11,3 km/h (2 Bft) 97,87 %
03.11.2016 08:24 4,7 C 89 % 1021,1 hPa 0,0 l/m 7,0 km/h (2 Bft) S-SW 203 0 min 0,000 mm 0,0 UV-I 35 W/m 3,0 C 4,2 C 11,3 km/h (2 Bft) 98,00 %
03.11.2016 08:26 4,8 C 89 % 1021,1 hPa 0,0 l/m 7,6 km/h (2 Bft) SW 232 0 min 0,000 mm 0,0 UV-I 38 W/m 3,1 C 3,7 C 12,9 km/h (3 Bft) 95,12 %
03.11.2016 08:28 4,8 C 89 % 1021,2 hPa 0,0 l/m 7,2 km/h (2 Bft) S-SW 210 0 min 0,000 mm 0,0 UV-I 39 W/m 3,1 C 4,1 C 11,3 km/h (2 Bft) 98,11 %
03.11.2016 08:30 4,8 C 90 % 1021,2 hPa 0,0 l/m 7,8 km/h (2 Bft) W-SW 238 0 min 0,000 mm 0,0 UV-I 39 W/m 3,3 C 3,6 C 11,3 km/h (2 Bft) 97,37 %
03.11.2016 08:32 4,8 C 90 % 1021,2 hPa 0,0 l/m 9,4 km/h (2 Bft) W-SW 242 0 min 0,000 mm 0,0 UV-I 37 W/m 3,3 C 2,3 C 14,5 km/h (3 Bft) 100,00 %
03.11.2016 08:34 4,8 C 89 % 1021,2 hPa 0,0 l/m 7,7 km/h (2 Bft) W-SW 240 0 min 0,000 mm 0,0 UV-I 40 W/m 3,1 C 3,6 C 11,3 km/h (2 Bft) 100,00 %
03.11.2016 08:36 4,8 C 90 % 1021,2 hPa 0,0 l/m 9,5 km/h (2 Bft) SW 235 0 min 0,000 mm 0,0 UV-I 43 W/m 3,3 C 2,2 C 16,1 km/h (3 Bft) 98,36 %
03.11.2016 08:38 4,8 C 90 % 1021,3 hPa 0,0 l/m 7,9 km/h (2 Bft) W-SW 239 0 min 0,000 mm 0,0 UV-I 44 W/m 3,3 C 3,5 C 14,5 km/h (3 Bft) 100,00 %
03.11.2016 08:40 4,8 C 90 % 1021,3 hPa 0,0 l/m 11,8 km/h (2 Bft) SW 223 0 min 0,000 mm 0,0 UV-I 42 W/m 3,3 C 0,7 C 17,7 km/h (3 Bft) 100,00 %
03.11.2016 08:42 4,8 C 90 % 1021,2 hPa 0,0 l/m 9,9 km/h (2 Bft) S-SW 205 0 min 0,000 mm 0,0 UV-I 47 W/m 3,3 C 1,9 C 16,1 km/h (3 Bft) 100,00 %
03.11.2016 08:44 4,8 C 90 % 1021,3 hPa 0,0 l/m 9,0 km/h (2 Bft) SW 225 0 min 0,000 mm 0,0 UV-I 53 W/m 3,3 C 2,6 C 17,7 km/h (3 Bft) 100,00 %
03.11.2016 08:46 4,9 C 90 % 1021,3 hPa 0,0 l/m 7,7 km/h (2 Bft) SW 232 0 min 0,000 mm 0,0 UV-I 59 W/m 3,4 C 3,8 C 12,9 km/h (3 Bft) 100,00 %
03.11.2016 08:48 4,9 C 90 % 1021,3 hPa 0,0 l/m 8,0 km/h (2 Bft) SW 215 0 min 0,000 mm 0,0 UV-I 62 W/m 3,4 C 3,5 C 12,9 km/h (3 Bft) 97,56 %
03.11.2016 08:50 4,9 C 90 % 1021,3 hPa 0,0 l/m 8,9 km/h (2 Bft) W-SW 250 0 min 0,000 mm 0,0 UV-I 65 W/m 3,4 C 2,8 C 14,5 km/h (3 Bft) 100,00 %
03.11.2016 08:52 4,9 C 90 % 1021,3 hPa 0,0 l/m 10,3 km/h (2 Bft) SW 236 0 min 0,000 mm 0,0 UV-I 71 W/m 3,4 C 1,8 C 16,1 km/h (3 Bft) 100,00 %
03.11.2016 08:54 4,9 C 90 % 1021,3 hPa 0,0 l/m 8,9 km/h (2 Bft) W-SW 237 0 min 0,000 mm 0,0 UV-I 80 W/m 3,4 C 2,8 C 14,5 km/h (3 Bft) 97,87 %
03.11.2016 08:56 5,0 C 90 % 1021,4 hPa 0,0 l/m 8,9 km/h (2 Bft) SW 236 0 min 0,000 mm 0,0 UV-I 90 W/m 3,5 C 2,9 C 14,5 km/h (3 Bft) 97,87 %
03.11.2016 08:58 5,0 C 90 % 1021,4 hPa 0,0 l/m 9,2 km/h (2 Bft) SW 236 0 min 0,000 mm 0,0 UV-I 96 W/m 3,5 C 2,7 C 16,1 km/h (3 Bft) 100,00 %
03.11.2016 09:00 5,1 C 90 % 1021,4 hPa 0,0 l/m 8,7 km/h (2 Bft) W-SW 238 0 min 0,026 mm 0,0 UV-I 103 W/m 3,6 C 3,1 C 14,5 km/h (3 Bft) 100,00 %
03.11.2016 09:02 5,1 C 90 % 1021,4 hPa 0,0 l/m 8,2 km/h (2 Bft) SW 215 0 min 0,000 mm 0,0 UV-I 111 W/m 3,6 C 3,5 C 12,9 km/h (3 Bft) 100,00 %
03.11.2016 09:04 5,2 C 90 % 1021,4 hPa 0,0 l/m 11,2 km/h (2 Bft) W-SW 240 0 min 0,000 mm 0,0 UV-I 114 W/m 3,7 C 1,5 C 14,5 km/h (3 Bft) 98,21 %
03.11.2016 09:06 5,2 C 89 % 1021,4 hPa 0,0 l/m 11,3 km/h (2 Bft) SW 231 0 min 0,000 mm 0,0 UV-I 119 W/m 3,5 C 1,4 C 17,7 km/h (3 Bft) 100,00 %
03.11.2016 09:08 5,2 C 90 % 1021,4 hPa 0,0 l/m 10,9 km/h (2 Bft) S-SW 204 0 min 0,000 mm 0,0 UV-I 129 W/m 3,7 C 1,7 C 16,1 km/h (3 Bft) 100,00 %
03.11.2016 09:10 5,3 C 89 % 1021,4 hPa 0,0 l/m 10,6 km/h (2 Bft) W-SW 246 0 min 0,000 mm 0,0 UV-I 136 W/m 3,6 C 2,0 C 17,7 km/h (3 Bft) 100,00 %
03.11.2016 09:12 5,3 C 89 % 1021,4 hPa 0,0 l/m 11,2 km/h (2 Bft) SW 236 0 min 0,000 mm 0,0 UV-I 133 W/m 3,6 C 1,6 C 16,1 km/h (3 Bft) 100,00 %
03.11.2016 09:14 5,3 C 89 % 1021,5 hPa 0,0 l/m 9,7 km/h (2 Bft) SW 233 0 min 0,000 mm 0,0 UV-I 134 W/m 3,6 C 2,6 C 14,5 km/h (3 Bft) 98,11 %
03.11.2016 09:16 5,4 C 89 % 1021,5 hPa 0,0 l/m 12,4 km/h (3 Bft) SW 226 0 min 0,000 mm 0,0 UV-I 140 W/m 3,7 C 1,0 C 19,3 km/h (3 Bft) 100,00 %
03.11.2016 09:18 5,4 C 89 % 1021,5 hPa 0,0 l/m 12,2 km/h (2 Bft) SW 232 0 min 0,000 mm 0,0 UV-I 144 W/m 3,7 C 1,1 C 17,7 km/h (3 Bft) 100,00 %
03.11.2016 09:20 5,4 C 89 % 1021,5 hPa 0,0 l/m 12,9 km/h (3 Bft) W-SW 237 0 min 0,000 mm 0,0 UV-I 136 W/m 3,7 C 0,7 C 19,3 km/h (3 Bft) 100,00 %
03.11.2016 09:22 5,5 C 89 % 1021,5 hPa 0,0 l/m 9,8 km/h (2 Bft) S-SW 202 0 min 0,000 mm 0,0 UV-I 125 W/m 3,8 C 2,8 C 16,1 km/h (3 Bft) 100,00 %
03.11.2016 09:24 5,5 C 89 % 1021,6 hPa 0,0 l/m 11,0 km/h (2 Bft) SW 225 0 min 0,000 mm 0,0 UV-I 123 W/m 3,8 C 2,0 C 19,3 km/h (3 Bft) 98,00 %
03.11.2016 09:26 5,6 C 89 % 1021,6 hPa 0,0 l/m 12,4 km/h (3 Bft) SW 228 0 min 0,000 mm 0,0 UV-I 129 W/m 3,9 C 1,2 C 16,1 km/h (3 Bft) 100,00 %
03.11.2016 09:28 5,6 C 88 % 1021,6 hPa 0,0 l/m 11,3 km/h (2 Bft) W-SW 244 0 min 0,000 mm 0,0 UV-I 132 W/m 3,8 C 1,9 C 17,7 km/h (3 Bft) 100,00 %
03.11.2016 09:30 5,6 C 88 % 1021,6 hPa 0,0 l/m 15,7 km/h (3 Bft) W-SW 249 0 min 0,000 mm 0,0 UV-I 139 W/m 3,8 C -0,5 C 22,5 km/h (4 Bft) 100,00 %
03.11.2016 09:32 5,6 C 88 % 1021,6 hPa 0,0 l/m 13,4 km/h (3 Bft) SW 230 0 min 0,000 mm 0,0 UV-I 155 W/m 3,8 C 0,6 C 19,3 km/h (3 Bft) 100,00 %
03.11.2016 09:34 5,6 C 88 % 1021,6 hPa 0,0 l/m 13,4 km/h (3 Bft) W-SW 242 0 min 0,000 mm 0,0 UV-I 149 W/m 3,8 C 0,6 C 19,3 km/h (3 Bft) 100,00 %
03.11.2016 09:36 5,6 C 88 % 1021,5 hPa 0,0 l/m 16,0 km/h (3 Bft) W-SW 246 0 min 0,000 mm 0,0 UV-I 152 W/m 3,8 C -0,7 C 22,5 km/h (4 Bft) 100,00 %
03.11.2016 09:38 5,6 C 88 % 1021,6 hPa 0,0 l/m 13,5 km/h (3 Bft) W-SW 238 0 min 0,000 mm 0,0 UV-I 157 W/m 3,8 C 0,6 C 22,5 km/h (4 Bft) 100,00 %
03.11.2016 09:40 5,6 C 88 % 1021,6 hPa 0,0 l/m 12,8 km/h (3 Bft) SW 226 0 min 0,000 mm 0,0 UV-I 156 W/m 3,8 C 1,0 C 19,3 km/h (3 Bft) 96,23 %
03.11.2016 09:42 5,7 C 88 % 1021,6 hPa 0,0 l/m 14,4 km/h (3 Bft) W-SW 257 0 min 0,000 mm 0,0 UV-I 156 W/m 3,9 C 0,2 C 20,9 km/h (4 Bft) 94,74 %
03.11.2016 09:44 5,7 C 88 % 1021,7 hPa 0,0 l/m 11,1 km/h (2 Bft) SW 233 0 min 0,000 mm 0,0 UV-I 150 W/m 3,9 C 2,1 C 20,9 km/h (4 Bft) 100,00 %
03.11.2016 09:46 5,7 C 88 % 1021,7 hPa 0,0 l/m 13,0 km/h (3 Bft) SW 223 0 min 0,000 mm 0,0 UV-I 152 W/m 3,9 C 1,0 C 19,3 km/h (3 Bft) 100,00 %
03.11.2016 09:48 5,7 C 88 % 1021,7 hPa 0,0 l/m 12,0 km/h (2 Bft) W-SW 257 0 min 0,000 mm 0,0 UV-I 150 W/m 3,9 C 1,6 C 17,7 km/h (3 Bft) 97,62 %
03.11.2016 09:50 5,8 C 88 % 1021,7 hPa 0,0 l/m 11,5 km/h (2 Bft) SW 230 0 min 0,000 mm 0,0 UV-I 144 W/m 4,0 C 2,0 C 17,7 km/h (3 Bft) 98,18 %
03.11.2016 09:52 5,8 C 87 % 1021,7 hPa 0,0 l/m 13,4 km/h (3 Bft) S-SW 204 0 min 0,000 mm 0,0 UV-I 143 W/m 3,8 C 0,9 C 24,1 km/h (4 Bft) 94,34 %
03.11.2016 09:54 5,7 C 87 % 1021,7 hPa 0,0 l/m 11,8 km/h (2 Bft) W-SW 252 0 min 0,000 mm 0,5 UV-I 157 W/m 3,7 C 1,7 C 19,3 km/h (3 Bft) 97,56 %
03.11.2016 09:56 5,8 C 87 % 1021,8 hPa 0,0 l/m 10,2 km/h (2 Bft) SW 220 0 min 0,000 mm 0,5 UV-I 183 W/m 3,8 C 2,8 C 17,7 km/h (3 Bft) 100,00 %
03.11.2016 09:58 5,8 C 87 % 1021,8 hPa 0,0 l/m 8,6 km/h (2 Bft) W-SW 239 0 min 0,000 mm 0,5 UV-I 199 W/m 3,8 C 4,0 C 12,9 km/h (3 Bft) 96,23 %
03.11.2016 10:00 5,9 C 88 % 1021,8 hPa 0,0 l/m 7,0 km/h (2 Bft) W-SW 247 0 min 0,076 mm 0,5 UV-I 196 W/m 4,1 C 5,4 C 11,3 km/h (2 Bft) 98,11 %
03.11.2016 10:02 5,9 C 87 % 1021,9 hPa 0,0 l/m 9,3 km/h (2 Bft) W-SW 244 0 min 0,000 mm 0,4 UV-I 191 W/m 3,9 C 3,6 C 14,5 km/h (3 Bft) 95,12 %
03.11.2016 10:04 6,0 C 87 % 1022,0 hPa 0,0 l/m 8,0 km/h (2 Bft) S-SW 212 0 min 0,000 mm 0,0 UV-I 167 W/m 4,0 C 4,7 C 12,9 km/h (3 Bft) 98,11 %
03.11.2016 10:06 6,1 C 87 % 1021,9 hPa 0,0 l/m 9,4 km/h (2 Bft) SW 236 0 min 0,000 mm 0,0 UV-I 158 W/m 4,1 C 3,7 C 14,5 km/h (3 Bft) 98,00 %
03.11.2016 10:08 6,1 C 87 % 1021,9 hPa 0,0 l/m 13,0 km/h (3 Bft) W-SW 252 0 min 0,000 mm 0,0 UV-I 144 W/m 4,1 C 1,5 C 20,9 km/h (4 Bft) 94,74 %
03.11.2016 10:10 6,1 C 87 % 1022,0 hPa 0,0 l/m 11,6 km/h (2 Bft) W-SW 248 0 min 0,000 mm 0,0 UV-I 134 W/m 4,1 C 2,3 C 16,1 km/h (3 Bft) 96,43 %
03.11.2016 10:12 6,1 C 87 % 1022,0 hPa 0,0 l/m 6,2 km/h (2 Bft) W-SW 239 0 min 0,000 mm 0,0 UV-I 164 W/m 4,1 C 6,1 C 11,3 km/h (2 Bft) 97,56 %
03.11.2016 10:14 6,2 C 87 % 1022,0 hPa 0,0 l/m 10,1 km/h (2 Bft) S-SW 210 0 min 0,000 mm 0,0 UV-I 164 W/m 4,2 C 3,3 C 17,7 km/h (3 Bft) 94,74 %
03.11.2016 10:16 6,2 C 86 % 1022,0 hPa 0,0 l/m 11,7 km/h (2 Bft) SW 233 0 min 0,000 mm 0,0 UV-I 168 W/m 4,0 C 2,3 C 17,7 km/h (3 Bft) 98,15 %
03.11.2016 10:18 6,1 C 86 % 1022,1 hPa 0,0 l/m 7,1 km/h (2 Bft) SW 229 0 min 0,000 mm 0,0 UV-I 144 W/m 3,9 C 5,5 C 11,3 km/h (2 Bft) 97,56 %
03.11.2016 10:20 6,2 C 87 % 1022,1 hPa 0,0 l/m 8,5 km/h (2 Bft) W-SW 249 0 min 0,000 mm 0,5 UV-I 182 W/m 4,2 C 4,5 C 14,5 km/h (3 Bft) 96,23 %
03.11.2016 10:22 6,2 C 87 % 1022,1 hPa 0,0 l/m 8,8 km/h (2 Bft) W-SW 245 0 min 0,000 mm 0,5 UV-I 181 W/m 4,2 C 4,2 C 12,9 km/h (3 Bft) 98,11 %
03.11.2016 10:24 6,3 C 86 % 1022,0 hPa 0,0 l/m 11,3 km/h (2 Bft) S-SW 213 0 min 0,000 mm 0,6 UV-I 195 W/m 4,1 C 2,7 C 19,3 km/h (3 Bft) 100,00 %
03.11.2016 10:26 6,3 C 86 % 1022,1 hPa 0,0 l/m 13,4 km/h (3 Bft) W-SW 240 0 min 0,000 mm 0,6 UV-I 201 W/m 4,1 C 1,5 C 17,7 km/h (3 Bft) 100,00 %
03.11.2016 10:28 6,3 C 86 % 1022,1 hPa 0,0 l/m 8,3 km/h (2 Bft) SW 219 0 min 0,000 mm 0,4 UV-I 178 W/m 4,1 C 4,7 C 14,5 km/h (3 Bft) 100,00 %
03.11.2016 10:30 6,4 C 86 % 1022,2 hPa 0,0 l/m 9,2 km/h (2 Bft) W-SW 238 0 min 0,000 mm 0,0 UV-I 155 W/m 4,2 C 4,2 C 16,1 km/h (3 Bft) 100,00 %
03.11.2016 10:32 6,4 C 85 % 1022,1 hPa 0,0 l/m 9,7 km/h (2 Bft) W-SW 246 0 min 0,000 mm 0,0 UV-I 163 W/m 4,1 C 3,8 C 16,1 km/h (3 Bft) 100,00 %
03.11.2016 10:34 6,4 C 86 % 1022,2 hPa 0,0 l/m 7,3 km/h (2 Bft) W-SW 246 0 min 0,000 mm 0,0 UV-I 149 W/m 4,2 C 5,6 C 12,9 km/h (3 Bft) 100,00 %
03.11.2016 10:36 6,5 C 86 % 1022,2 hPa 0,0 l/m 9,9 km/h (2 Bft) W-SW 240 0 min 0,000 mm 0,0 UV-I 158 W/m 4,3 C 3,8 C 14,5 km/h (3 Bft) 97,78 %
03.11.2016 10:38 6,5 C 85 % 1022,2 hPa 0,0 l/m 12,3 km/h (3 Bft) W-SW 251 0 min 0,000 mm 0,0 UV-I 165 W/m 4,2 C 2,3 C 19,3 km/h (3 Bft) 100,00 %
03.11.2016 10:40 6,6 C 86 % 1022,2 hPa 0,0 l/m 11,1 km/h (2 Bft) W-SW 246 0 min 0,000 mm 0,4 UV-I 182 W/m 4,4 C 3,1 C 14,5 km/h (3 Bft) 100,00 %
03.11.2016 10:42 6,6 C 85 % 1022,1 hPa 0,0 l/m 11,2 km/h (2 Bft) W-SW 238 0 min 0,000 mm 0,5 UV-I 186 W/m 4,3 C 3,1 C 17,7 km/h (3 Bft) 100,00 %
03.11.2016 10:44 6,7 C 85 % 1022,2 hPa 0,0 l/m 11,0 km/h (2 Bft) SW 218 0 min 0,000 mm 0,5 UV-I 181 W/m 4,4 C 3,3 C 17,7 km/h (3 Bft) 100,00 %
03.11.2016 10:46 6,7 C 84 % 1022,2 hPa 0,0 l/m 11,7 km/h (2 Bft) W 263 0 min 0,000 mm 0,5 UV-I 182 W/m 4,2 C 2,9 C 17,7 km/h (3 Bft) 100,00 %
03.11.2016 10:48 6,7 C 83 % 1022,3 hPa 0,0 l/m 9,1 km/h (2 Bft) S-SW 211 0 min 0,000 mm 0,5 UV-I 178 W/m 4,0 C 4,6 C 20,9 km/h (4 Bft) 100,00 %
03.11.2016 10:50 6,7 C 83 % 1022,2 hPa 0,0 l/m 10,1 km/h (2 Bft) W-SW 246 0 min 0,000 mm 0,5 UV-I 184 W/m 4,0 C 3,9 C 19,3 km/h (3 Bft) 100,00 %
03.11.2016 10:52 6,7 C 84 % 1022,2 hPa 0,0 l/m 9,2 km/h (2 Bft) SW 236 0 min 0,000 mm 0,6 UV-I 191 W/m 4,2 C 4,5 C 14,5 km/h (3 Bft) 100,00 %
03.11.2016 10:54 6,7 C 82 % 1022,2 hPa 0,0 l/m 11,8 km/h (2 Bft) W-SW 257 0 min 0,000 mm 0,5 UV-I 170 W/m 3,8 C 2,8 C 24,1 km/h (4 Bft) 100,00 %
03.11.2016 10:56 6,7 C 80 % 1022,2 hPa 0,0 l/m 19,3 km/h (3 Bft) W 261 0 min 0,000 mm 0,1 UV-I 146 W/m 3,5 C -0,7 C 30,6 km/h (5 Bft) 100,00 %
03.11.2016 10:58 6,7 C 81 % 1022,2 hPa 0,0 l/m 8,3 km/h (2 Bft) W-SW 245 0 min 0,000 mm 0,4 UV-I 157 W/m 3,7 C 5,2 C 14,5 km/h (3 Bft) 97,56 %
03.11.2016 11:00 6,8 C 82 % 1022,2 hPa 0,0 l/m 9,9 km/h (2 Bft) W 259 0 min 0,076 mm 0,5 UV-I 186 W/m 3,9 C 4,1 C 14,5 km/h (3 Bft) 100,00 %
03.11.2016 11:02 6,8 C 81 % 1022,1 hPa 0,0 l/m 10,6 km/h (2 Bft) W-NW 291 0 min 0,000 mm 0,7 UV-I 224 W/m 3,8 C 3,7 C 14,5 km/h (3 Bft) 98,21 %
03.11.2016 11:04 7,0 C 81 % 1022,1 hPa 0,0 l/m 10,6 km/h (2 Bft) W-SW 246 0 min 0,000 mm 0,6 UV-I 236 W/m 4,0 C 3,9 C 16,1 km/h (3 Bft) 97,73 %
03.11.2016 11:06 7,1 C 81 % 1022,1 hPa 0,0 l/m 10,2 km/h (2 Bft) W 274 0 min 0,000 mm 0,4 UV-I 220 W/m 4,1 C 4,3 C 17,7 km/h (3 Bft) 100,00 %
03.11.2016 11:08 7,1 C 80 % 1022,1 hPa 0,0 l/m 6,8 km/h (2 Bft) W-SW 256 0 min 0,000 mm 0,0 UV-I 200 W/m 3,9 C 6,8 C 12,9 km/h (3 Bft) 100,00 %
03.11.2016 11:10 7,1 C 80 % 1022,1 hPa 0,0 l/m 9,3 km/h (2 Bft) W-SW 238 0 min 0,000 mm 0,0 UV-I 167 W/m 3,9 C 4,9 C 14,5 km/h (3 Bft) 98,11 %
03.11.2016 11:12 7,1 C 81 % 1022,1 hPa 0,0 l/m 12,3 km/h (3 Bft) W-SW 258 0 min 0,000 mm 0,0 UV-I 109 W/m 4,1 C 3,0 C 19,3 km/h (3 Bft) 100,00 %
03.11.2016 11:14 7,0 C 81 % 1022,1 hPa 0,0 l/m 8,1 km/h (2 Bft) W 260 0 min 0,000 mm 0,0 UV-I 90 W/m 4,0 C 5,6 C 11,3 km/h (2 Bft) 100,00 %
03.11.2016 11:16 6,9 C 80 % 1022,0 hPa 0,0 l/m 12,0 km/h (2 Bft) W 265 0 min 0,000 mm 0,0 UV-I 88 W/m 3,7 C 2,9 C 17,7 km/h (3 Bft) 100,00 %
03.11.2016 11:18 6,8 C 80 % 1022,0 hPa 0,0 l/m 9,9 km/h (2 Bft) W 277 0 min 0,000 mm 0,0 UV-I 103 W/m 3,6 C 4,1 C 14,5 km/h (3 Bft) 100,00 %
03.11.2016 11:20 6,8 C 81 % 1022,0 hPa 0,0 l/m 8,6 km/h (2 Bft) W-SW 248 0 min 0,000 mm 0,0 UV-I 112 W/m 3,8 C 5,0 C 17,7 km/h (3 Bft) 97,22 %
03.11.2016 11:22 6,7 C 80 % 1022,0 hPa 0,0 l/m 9,2 km/h (2 Bft) SW 226 0 min 0,000 mm 0,2 UV-I 118 W/m 3,5 C 4,5 C 16,1 km/h (3 Bft) 100,00 %
03.11.2016 11:24 6,7 C 82 % 1022,0 hPa 0,0 l/m 5,6 km/h (1 Bft) W 277 0 min 0,000 mm 0,5 UV-I 123 W/m 3,8 C 6,7 C 9,7 km/h (2 Bft) 100,00 %
03.11.2016 11:26 6,7 C 80 % 1022,0 hPa 0,0 l/m 11,9 km/h (2 Bft) W 270 0 min 0,000 mm 0,5 UV-I 126 W/m 3,5 C 2,8 C 16,1 km/h (3 Bft) 100,00 %
03.11.2016 11:28 6,7 C 81 % 1022,0 hPa 0,0 l/m 7,6 km/h (2 Bft) W-SW 250 0 min 0,000 mm 0,5 UV-I 130 W/m 3,7 C 5,7 C 12,9 km/h (3 Bft) 100,00 %
03.11.2016 11:30 6,7 C 81 % 1022,0 hPa 0,0 l/m 7,9 km/h (2 Bft) W-NW 297 0 min 0,000 mm 0,5 UV-I 122 W/m 3,7 C 5,5 C 17,7 km/h (3 Bft) 100,00 %
03.11.2016 11:32 6,8 C 81 % 1022,0 hPa 0,0 l/m 7,0 km/h (2 Bft) W-SW 243 0 min 0,000 mm 0,5 UV-I 120 W/m 3,8 C 6,3 C 16,1 km/h (3 Bft) 100,00 %
03.11.2016 11:34 6,8 C 81 % 1022,1 hPa 0,0 l/m 10,1 km/h (2 Bft) W 263 0 min 0,000 mm 0,5 UV-I 124 W/m 3,8 C 4,0 C 16,1 km/h (3 Bft) 97,37 %
03.11.2016 11:36 6,8 C 80 % 1022,0 hPa 0,0 l/m 6,8 km/h (2 Bft) W-SW 252 0 min 0,000 mm 0,5 UV-I 129 W/m 3,6 C 6,5 C 14,5 km/h (3 Bft) 97,87 %
03.11.2016 11:38 6,8 C 81 % 1022,0 hPa 0,0 l/m 10,4 km/h (2 Bft) W 281 0 min 0,000 mm 0,6 UV-I 137 W/m 3,8 C 3,8 C 17,7 km/h (3 Bft) 100,00 %
03.11.2016 11:40 6,7 C 80 % 1022,1 hPa 0,0 l/m 12,7 km/h (3 Bft) SW 226 0 min 0,000 mm 0,6 UV-I 159 W/m 3,5 C 2,3 C 25,7 km/h (4 Bft) 100,00 %
03.11.2016 11:42 6,7 C 79 % 1022,0 hPa 0,0 l/m 13,5 km/h (3 Bft) W 266 0 min 0,000 mm 0,7 UV-I 186 W/m 3,3 C 1,9 C 25,7 km/h (4 Bft) 100,00 %
03.11.2016 11:44 6,8 C 79 % 1022,0 hPa 0,0 l/m 10,6 km/h (2 Bft) W-SW 252 0 min 0,000 mm 0,7 UV-I 195 W/m 3,4 C 3,7 C 20,9 km/h (4 Bft) 100,00 %
03.11.2016 11:46 6,8 C 80 % 1022,1 hPa 0,0 l/m 9,6 km/h (2 Bft) W-SW 254 0 min 0,000 mm 0,7 UV-I 191 W/m 3,6 C 4,3 C 17,7 km/h (3 Bft) 97,37 %
03.11.2016 11:48 6,8 C 80 % 1022,0 hPa 0,0 l/m 6,9 km/h (2 Bft) W 261 0 min 0,000 mm 0,7 UV-I 196 W/m 3,6 C 6,4 C 12,9 km/h (3 Bft) 98,11 %
03.11.2016 11:50 6,9 C 80 % 1022,0 hPa 0,0 l/m 7,9 km/h (2 Bft) W-SW 257 0 min 0,000 mm 0,7 UV-I 209 W/m 3,7 C 5,7 C 12,9 km/h (3 Bft) 98,00 %
03.11.2016 11:52 7,0 C 80 % 1022,0 hPa 0,0 l/m 8,9 km/h (2 Bft) W 267 0 min 0,000 mm 0,7 UV-I 223 W/m 3,8 C 5,0 C 17,7 km/h (3 Bft) 94,74 %
03.11.2016 11:54 7,0 C 79 % 1022,0 hPa 0,0 l/m 12,9 km/h (3 Bft) W 269 0 min 0,000 mm 0,7 UV-I 230 W/m 3,6 C 2,6 C 25,7 km/h (4 Bft) 96,00 %
03.11.2016 11:56 7,0 C 79 % 1022,0 hPa 0,0 l/m 13,6 km/h (3 Bft) W 259 0 min 0,000 mm 0,7 UV-I 239 W/m 3,6 C 2,2 C 24,1 km/h (4 Bft) 100,00 %
03.11.2016 11:58 7,1 C 79 % 1022,0 hPa 0,0 l/m 11,8 km/h (2 Bft) W 267 0 min 0,000 mm 0,7 UV-I 240 W/m 3,7 C 3,3 C 20,9 km/h (4 Bft) 95,74 %
03.11.2016 12:00 7,1 C 78 % 1021,9 hPa 0,0 l/m 13,0 km/h (3 Bft) W 273 0 min 0,102 mm 0,7 UV-I 242 W/m 3,5 C 2,6 C 20,9 km/h (4 Bft) 98,21 %
03.11.2016 12:02 7,1 C 78 % 1021,9 hPa 0,0 l/m 12,1 km/h (2 Bft) W-SW 250 0 min 0,000 mm 0,7 UV-I 248 W/m 3,5 C 3,1 C 19,3 km/h (3 Bft) 98,04 %
03.11.2016 12:04 7,1 C 79 % 1022,0 hPa 0,0 l/m 13,3 km/h (3 Bft) W 263 2 min 0,000 mm 0,7 UV-I 250 W/m 3,7 C 2,5 C 24,1 km/h (4 Bft) 97,14 %
03.11.2016 12:06 7,2 C 78 % 1022,0 hPa 0,0 l/m 13,8 km/h (3 Bft) W 263 2 min 0,000 mm 0,7 UV-I 250 W/m 3,6 C 2,3 C 22,5 km/h (4 Bft) 96,43 %
03.11.2016 12:08 7,2 C 78 % 1021,9 hPa 0,0 l/m 16,6 km/h (3 Bft) NW 311 2 min 0,000 mm 0,7 UV-I 263 W/m 3,6 C 1,0 C 22,5 km/h (4 Bft) 98,00 %
03.11.2016 12:10 7,2 C 79 % 1021,9 hPa 0,0 l/m 14,8 km/h (3 Bft) W 265 2 min 0,000 mm 0,9 UV-I 274 W/m 3,8 C 1,8 C 20,9 km/h (4 Bft) 95,45 %
03.11.2016 12:12 7,3 C 78 % 1021,9 hPa 0,0 l/m 14,0 km/h (3 Bft) W-SW 250 2 min 0,000 mm 0,8 UV-I 286 W/m 3,7 C 2,3 C 22,5 km/h (4 Bft) 100,00 %
03.11.2016 12:14 7,3 C 77 % 1021,9 hPa 0,0 l/m 8,8 km/h (2 Bft) SW 231 2 min 0,000 mm 0,7 UV-I 264 W/m 3,5 C 5,4 C 14,5 km/h (3 Bft) 96,00 %
03.11.2016 12:16 7,4 C 78 % 1021,9 hPa 0,0 l/m 14,9 km/h (3 Bft) W-SW 251 0 min 0,000 mm 0,7 UV-I 244 W/m 3,8 C 2,0 C 22,5 km/h (4 Bft) 100,00 %
03.11.2016 12:18 7,3 C 76 % 1021,8 hPa 0,0 l/m 14,4 km/h (3 Bft) W 259 0 min 0,000 mm 0,6 UV-I 217 W/m 3,4 C 2,1 C 22,5 km/h (4 Bft) 100,00 %
03.11.2016 12:20 7,3 C 76 % 1021,8 hPa 0,0 l/m 16,6 km/h (3 Bft) W-SW 248 0 min 0,000 mm 0,6 UV-I 195 W/m 3,4 C 1,1 C 22,5 km/h (4 Bft) 100,00 %
03.11.2016 12:22 7,2 C 76 % 1021,9 hPa 0,0 l/m 14,7 km/h (3 Bft) W 267 0 min 0,000 mm 0,6 UV-I 191 W/m 3,3 C 1,9 C 24,1 km/h (4 Bft) 100,00 %
03.11.2016 12:24 7,2 C 77 % 1021,9 hPa 0,0 l/m 11,4 km/h (2 Bft) W 259 0 min 0,000 mm 0,6 UV-I 202 W/m 3,4 C 3,6 C 17,7 km/h (3 Bft) 95,74 %
03.11.2016 12:26 7,3 C 77 % 1021,8 hPa 0,0 l/m 14,0 km/h (3 Bft) W-SW 258 2 min 0,000 mm 0,7 UV-I 255 W/m 3,5 C 2,3 C 27,4 km/h (4 Bft) 97,56 %
03.11.2016 12:28 7,3 C 77 % 1021,8 hPa 0,0 l/m 11,9 km/h (2 Bft) W-SW 248 2 min 0,000 mm 0,8 UV-I 274 W/m 3,5 C 3,5 C 20,9 km/h (4 Bft) 100,00 %
03.11.2016 12:30 7,4 C 76 % 1021,8 hPa 0,0 l/m 15,8 km/h (3 Bft) W-SW 250 2 min 0,000 mm 0,8 UV-I 251 W/m 3,5 C 1,6 C 24,1 km/h (4 Bft) 100,00 %
03.11.2016 12:32 7,5 C 76 % 1021,7 hPa 0,0 l/m 14,9 km/h (3 Bft) W-SW 257 2 min 0,000 mm 0,8 UV-I 251 W/m 3,5 C 2,2 C 24,1 km/h (4 Bft) 97,44 %
03.11.2016 12:34 7,7 C 77 % 1021,7 hPa 0,0 l/m 12,6 km/h (3 Bft) S 169 2 min 0,000 mm 1,0 UV-I 504 W/m 3,9 C 3,5 C 17,7 km/h (3 Bft) 98,00 %
03.11.2016 12:36 7,9 C 75 % 1021,7 hPa 0,0 l/m 11,7 km/h (2 Bft) W-SW 256 2 min 0,000 mm 1,0 UV-I 585 W/m 3,7 C 4,3 C 19,3 km/h (3 Bft) 100,00 %
03.11.2016 12:38 7,9 C 75 % 1021,7 hPa 0,0 l/m 11,4 km/h (2 Bft) SW 214 2 min 0,000 mm 0,9 UV-I 577 W/m 3,7 C 4,4 C 16,1 km/h (3 Bft) 100,00 %
03.11.2016 12:40 8,1 C 76 % 1021,7 hPa 0,0 l/m 12,6 km/h (3 Bft) W 270 2 min 0,000 mm 0,9 UV-I 577 W/m 4,1 C 4,0 C 19,3 km/h (3 Bft) 97,62 %
03.11.2016 12:42 8,0 C 75 % 1021,7 hPa 0,0 l/m 9,9 km/h (2 Bft) SW 232 0 min 0,000 mm 0,7 UV-I 204 W/m 3,8 C 5,4 C 17,7 km/h (3 Bft) 100,00 %
03.11.2016 12:44 7,9 C 75 % 1021,7 hPa 0,0 l/m 11,9 km/h (2 Bft) W 271 0 min 0,000 mm 0,7 UV-I 177 W/m 3,7 C 4,2 C 17,7 km/h (3 Bft) 100,00 %
03.11.2016 12:46 7,8 C 75 % 1021,7 hPa 0,0 l/m 11,9 km/h (2 Bft) W-SW 241 0 min 0,000 mm 0,7 UV-I 196 W/m 3,7 C 4,0 C 22,5 km/h (4 Bft) 97,56 %
03.11.2016 12:48 7,7 C 75 % 1021,7 hPa 0,0 l/m 12,5 km/h (3 Bft) W-SW 257 0 min 0,000 mm 0,6 UV-I 174 W/m 3,6 C 3,6 C 20,9 km/h (4 Bft) 100,00 %
03.11.2016 12:50 7,6 C 77 % 1021,7 hPa 0,0 l/m 6,8 km/h (2 Bft) W-SW 250 0 min 0,000 mm 0,7 UV-I 184 W/m 3,8 C 7,3 C 12,9 km/h (3 Bft) 100,00 %
03.11.2016 12:52 7,6 C 77 % 1021,7 hPa 0,0 l/m 7,5 km/h (2 Bft) W-SW 250 0 min 0,000 mm 0,6 UV-I 176 W/m 3,8 C 6,7 C 11,3 km/h (2 Bft) 100,00 %
03.11.2016 12:54 7,6 C 78 % 1021,7 hPa 0,0 l/m 5,3 km/h (1 Bft) W 261 0 min 0,000 mm 0,6 UV-I 171 W/m 4,0 C 7,6 C 12,9 km/h (3 Bft) 94,74 %
03.11.2016 12:56 7,6 C 77 % 1021,7 hPa 0,0 l/m 6,1 km/h (2 Bft) W-NW 290 0 min 0,000 mm 0,5 UV-I 159 W/m 3,8 C 7,6 C 14,5 km/h (3 Bft) 100,00 %
03.11.2016 12:58 7,5 C 77 % 1021,7 hPa 0,0 l/m 8,3 km/h (2 Bft) W-SW 252 0 min 0,000 mm 0,5 UV-I 155 W/m 3,7 C 6,0 C 17,7 km/h (3 Bft) 98,21 %
03.11.2016 13:00 7,4 C 77 % 1021,7 hPa 0,0 l/m 6,3 km/h (2 Bft) W-SW 258 0 min 0,000 mm 0,5 UV-I 157 W/m 3,6 C 7,4 C 12,9 km/h (3 Bft) 100,00 %
03.11.2016 13:02 7,4 C 78 % 1021,7 hPa 0,0 l/m 5,9 km/h (2 Bft) W 273 0 min 0,152 mm 0,5 UV-I 151 W/m 3,8 C 7,4 C 12,9 km/h (3 Bft) 97,96 %
03.11.2016 13:04 7,4 C 78 % 1021,8 hPa 0,0 l/m 8,6 km/h (2 Bft) SW 235 0 min 0,000 mm 0,5 UV-I 148 W/m 3,8 C 5,7 C 16,1 km/h (3 Bft) 95,74 %
03.11.2016 13:06 7,4 C 78 % 1021,7 hPa 0,0 l/m 8,3 km/h (2 Bft) W-NW 291 0 min 0,000 mm 0,5 UV-I 143 W/m 3,8 C 5,9 C 11,3 km/h (2 Bft) 100,00 %
03.11.2016 13:08 7,4 C 78 % 1021,7 hPa 0,0 l/m 8,4 km/h (2 Bft) W 260 0 min 0,000 mm 0,5 UV-I 146 W/m 3,8 C 5,8 C 16,1 km/h (3 Bft) 100,00 %
03.11.2016 13:10 7,3 C 77 % 1021,8 hPa 0,0 l/m 10,9 km/h (2 Bft) W-SW 257 0 min 0,000 mm 0,6 UV-I 151 W/m 3,5 C 4,0 C 17,7 km/h (3 Bft) 98,11 %
03.11.2016 13:12 7,3 C 76 % 1021,8 hPa 0,0 l/m 12,1 km/h (2 Bft) W-NW 288 0 min 0,000 mm 0,6 UV-I 160 W/m 3,4 C 3,3 C 19,3 km/h (3 Bft) 97,56 %
03.11.2016 13:14 7,2 C 76 % 1021,8 hPa 0,0 l/m 12,6 km/h (3 Bft) W 261 0 min 0,000 mm 0,6 UV-I 166 W/m 3,3 C 3,0 C 20,9 km/h (4 Bft) 100,00 %
03.11.2016 13:16 7,2 C 76 % 1021,8 hPa 0,0 l/m 8,6 km/h (2 Bft) W 269 0 min 0,000 mm 0,6 UV-I 191 W/m 3,3 C 5,5 C 16,1 km/h (3 Bft) 100,00 %
03.11.2016 13:18 7,2 C 76 % 1021,8 hPa 0,0 l/m 9,0 km/h (2 Bft) W-SW 252 2 min 0,000 mm 0,6 UV-I 228 W/m 3,3 C 5,2 C 14,5 km/h (3 Bft) 97,87 %
03.11.2016 13:20 7,3 C 76 % 1021,8 hPa 0,0 l/m 9,3 km/h (2 Bft) W 267 0 min 0,000 mm 0,6 UV-I 219 W/m 3,4 C 5,1 C 19,3 km/h (3 Bft) 100,00 %
03.11.2016 13:22 7,3 C 76 % 1021,8 hPa 0,0 l/m 10,4 km/h (2 Bft) W 276 0 min 0,000 mm 0,6 UV-I 213 W/m 3,4 C 4,4 C 14,5 km/h (3 Bft) 100,00 %
03.11.2016 13:24 7,3 C 77 % 1021,7 hPa 0,0 l/m 11,4 km/h (2 Bft) W-SW 254 0 min 0,000 mm 0,6 UV-I 215 W/m 3,5 C 3,8 C 17,7 km/h (3 Bft) 96,00 %
03.11.2016 13:26 7,3 C 76 % 1021,7 hPa 0,0 l/m 12,4 km/h (3 Bft) W 265 0 min 0,000 mm 0,6 UV-I 206 W/m 3,4 C 3,2 C 17,7 km/h (3 Bft) 100,00 %
03.11.2016 13:28 7,3 C 76 % 1021,8 hPa 0,0 l/m 13,2 km/h (3 Bft) W-SW 254 0 min 0,000 mm 0,5 UV-I 181 W/m 3,4 C 2,8 C 19,3 km/h (3 Bft) 100,00 %
03.11.2016 13:30 7,3 C 77 % 1021,7 hPa 0,0 l/m 5,4 km/h (1 Bft) W-SW 239 0 min 0,000 mm 0,5 UV-I 167 W/m 3,5 C 7,3 C 9,7 km/h (2 Bft) 100,00 %
03.11.2016 13:32 7,3 C 78 % 1021,7 hPa 0,0 l/m 7,0 km/h (2 Bft) W 259 0 min 0,000 mm 0,5 UV-I 162 W/m 3,7 C 6,8 C 14,5 km/h (3 Bft) 95,74 %
03.11.2016 13:34 7,3 C 78 % 1021,7 hPa 0,0 l/m 6,7 km/h (2 Bft) W-SW 238 0 min 0,000 mm 0,5 UV-I 167 W/m 3,7 C 7,1 C 16,1 km/h (3 Bft) 100,00 %
03.11.2016 13:36 7,3 C 76 % 1021,7 hPa 0,0 l/m 15,5 km/h (3 Bft) W-SW 255 0 min 0,000 mm 0,5 UV-I 191 W/m 3,4 C 1,6 C 25,7 km/h (4 Bft) 96,23 %
03.11.2016 13:38 7,3 C 76 % 1021,7 hPa 0,0 l/m 11,6 km/h (2 Bft) W-SW 238 2 min 0,000 mm 0,6 UV-I 239 W/m 3,4 C 3,6 C 19,3 km/h (3 Bft) 97,56 %
03.11.2016 13:40 7,4 C 77 % 1021,7 hPa 0,0 l/m 9,6 km/h (2 Bft) W 262 0 min 0,000 mm 0,5 UV-I 191 W/m 3,6 C 5,0 C 16,1 km/h (3 Bft) 98,11 %
03.11.2016 13:42 7,4 C 76 % 1021,7 hPa 0,0 l/m 14,2 km/h (3 Bft) W-SW 241 0 min 0,000 mm 0,5 UV-I 160 W/m 3,5 C 2,4 C 22,5 km/h (4 Bft) 97,37 %
03.11.2016 13:44 7,4 C 76 % 1021,7 hPa 0,0 l/m 9,8 km/h (2 Bft) SW 223 0 min 0,000 mm 0,4 UV-I 148 W/m 3,5 C 4,9 C 12,9 km/h (3 Bft) 98,11 %
03.11.2016 13:46 7,4 C 76 % 1021,7 hPa 0,0 l/m 10,1 km/h (2 Bft) W 270 0 min 0,000 mm 0,0 UV-I 142 W/m 3,5 C 4,7 C 17,7 km/h (3 Bft) 97,87 %
03.11.2016 13:48 7,4 C 76 % 1021,7 hPa 0,0 l/m 11,5 km/h (2 Bft) SW 225 0 min 0,000 mm 0,0 UV-I 140 W/m 3,5 C 3,8 C 17,7 km/h (3 Bft) 95,12 %
03.11.2016 13:50 7,3 C 77 % 1021,7 hPa 0,0 l/m 11,6 km/h (2 Bft) W-SW 251 0 min 0,000 mm 0,0 UV-I 139 W/m 3,5 C 3,6 C 14,5 km/h (3 Bft) 98,08 %
03.11.2016 13:52 7,3 C 77 % 1021,7 hPa 0,0 l/m 12,2 km/h (2 Bft) SW 236 0 min 0,000 mm 0,0 UV-I 138 W/m 3,5 C 3,3 C 17,7 km/h (3 Bft) 95,24 %
03.11.2016 13:54 7,3 C 77 % 1021,7 hPa 0,0 l/m 10,4 km/h (2 Bft) W-NW 286 0 min 0,000 mm 0,0 UV-I 133 W/m 3,5 C 4,4 C 17,7 km/h (3 Bft) 96,15 %
03.11.2016 13:56 7,3 C 77 % 1021,7 hPa 0,0 l/m 9,3 km/h (2 Bft) W 260 0 min 0,000 mm 0,0 UV-I 127 W/m 3,5 C 5,1 C 14,5 km/h (3 Bft) 95,24 %
03.11.2016 13:58 7,3 C 77 % 1021,7 hPa 0,0 l/m 7,2 km/h (2 Bft) W-SW 254 0 min 0,000 mm 0,0 UV-I 124 W/m 3,5 C 6,7 C 12,9 km/h (3 Bft) 97,67 %
03.11.2016 14:00 7,3 C 76 % 1021,7 hPa 0,0 l/m 8,7 km/h (2 Bft) W 267 0 min 0,102 mm 0,0 UV-I 121 W/m 3,4 C 5,5 C 16,1 km/h (3 Bft) 98,11 %
03.11.2016 14:02 7,3 C 76 % 1021,7 hPa 0,0 l/m 12,4 km/h (3 Bft) W 274 0 min 0,000 mm 0,0 UV-I 118 W/m 3,4 C 3,2 C 17,7 km/h (3 Bft) 97,87 %
03.11.2016 14:04 7,3 C 76 % 1021,7 hPa 0,0 l/m 12,1 km/h (2 Bft) W-SW 255 0 min 0,000 mm 0,0 UV-I 109 W/m 3,4 C 3,3 C 19,3 km/h (3 Bft) 97,87 %
03.11.2016 14:06 7,3 C 77 % 1021,7 hPa 0,0 l/m 9,7 km/h (2 Bft) W 265 0 min 0,000 mm 0,0 UV-I 98 W/m 3,5 C 4,8 C 17,7 km/h (3 Bft) 97,87 %
03.11.2016 14:08 7,2 C 77 % 1021,7 hPa 0,0 l/m 7,2 km/h (2 Bft) W 267 0 min 0,000 mm 0,0 UV-I 91 W/m 3,4 C 6,5 C 12,9 km/h (3 Bft) 98,00 %
03.11.2016 14:10 7,2 C 77 % 1021,7 hPa 0,0 l/m 6,3 km/h (2 Bft) W-SW 238 0 min 0,000 mm 0,0 UV-I 85 W/m 3,4 C 7,2 C 9,7 km/h (2 Bft) 100,00 %
03.11.2016 14:12 7,2 C 77 % 1021,7 hPa 0,0 l/m 11,3 km/h (2 Bft) W-SW 246 0 min 0,000 mm 0,0 UV-I 79 W/m 3,4 C 3,7 C 17,7 km/h (3 Bft) 97,56 %
03.11.2016 14:14 7,2 C 77 % 1021,7 hPa 0,0 l/m 9,9 km/h (2 Bft) SW 223 0 min 0,000 mm 0,0 UV-I 75 W/m 3,4 C 4,6 C 16,1 km/h (3 Bft) 100,00 %
03.11.2016 14:16 7,2 C 77 % 1021,7 hPa 0,0 l/m 11,6 km/h (2 Bft) W 262 0 min 0,000 mm 0,0 UV-I 75 W/m 3,4 C 3,5 C 17,7 km/h (3 Bft) 100,00 %
03.11.2016 14:18 7,1 C 77 % 1021,7 hPa 0,0 l/m 11,1 km/h (2 Bft) SW 234 0 min 0,000 mm 0,0 UV-I 79 W/m 3,3 C 3,7 C 19,3 km/h (3 Bft) 100,00 %
03.11.2016 14:20 7,1 C 77 % 1021,7 hPa 0,0 l/m 12,7 km/h (3 Bft) W-SW 246 0 min 0,000 mm 0,0 UV-I 84 W/m 3,3 C 2,8 C 19,3 km/h (3 Bft) 100,00 %
03.11.2016 14:22 7,1 C 77 % 1021,7 hPa 0,0 l/m 11,9 km/h (2 Bft) SW 236 0 min 0,000 mm 0,0 UV-I 86 W/m 3,3 C 3,2 C 16,1 km/h (3 Bft) 98,00 %
03.11.2016 14:24 7,1 C 77 % 1021,7 hPa 0,0 l/m 10,5 km/h (2 Bft) W 261 0 min 0,000 mm 0,0 UV-I 86 W/m 3,3 C 4,1 C 14,5 km/h (3 Bft) 97,56 %
03.11.2016 14:26 7,1 C 78 % 1021,7 hPa 0,0 l/m 8,6 km/h (2 Bft) W-SW 248 0 min 0,000 mm 0,0 UV-I 82 W/m 3,5 C 5,4 C 14,5 km/h (3 Bft) 100,00 %
03.11.2016 14:29 7,1 C 78 % 1021,8 hPa 0,0 l/m 9,4 km/h (2 Bft) SW 235 0 min 0,000 mm 0,0 UV-I 74 W/m 3,5 C 4,8 C 16,1 km/h (3 Bft) 100,00 %
03.11.2016 14:30 7,1 C 78 % 1021,8 hPa 0,0 l/m 9,7 km/h (2 Bft) SW 215 0 min 0,000 mm 0,0 UV-I 71 W/m 3,5 C 4,6 C 12,9 km/h (3 Bft) 100,00 %
03.11.2016 14:32 7,1 C 78 % 1021,8 hPa 0,0 l/m 10,7 km/h (2 Bft) W-SW 244 0 min 0,000 mm 0,0 UV-I 70 W/m 3,5 C 3,9 C 16,1 km/h (3 Bft) 100,00 %
03.11.2016 14:34 7,0 C 78 % 1021,8 hPa 0,0 l/m 7,1 km/h (2 Bft) W-SW 246 0 min 0,000 mm 0,0 UV-I 70 W/m 3,4 C 6,4 C 12,9 km/h (3 Bft) 100,00 %
03.11.2016 14:36 7,0 C 78 % 1021,8 hPa 0,0 l/m 8,1 km/h (2 Bft) SW 232 0 min 0,000 mm 0,0 UV-I 72 W/m 3,4 C 5,6 C 14,5 km/h (3 Bft) 100,00 %
03.11.2016 14:38 7,0 C 78 % 1021,7 hPa 0,0 l/m 6,2 km/h (2 Bft) W 264 0 min 0,000 mm 0,0 UV-I 71 W/m 3,4 C 7,0 C 11,3 km/h (2 Bft) 100,00 %
03.11.2016 14:40 7,0 C 79 % 1021,7 hPa 0,0 l/m 7,9 km/h (2 Bft) S-SW 213 0 min 0,000 mm 0,0 UV-I 69 W/m 3,6 C 5,8 C 12,9 km/h (3 Bft) 100,00 %
03.11.2016 14:42 7,0 C 78 % 1021,8 hPa 0,0 l/m 9,7 km/h (2 Bft) W 277 0 min 0,000 mm 0,0 UV-I 69 W/m 3,4 C 4,5 C 14,5 km/h (3 Bft) 100,00 %
03.11.2016 14:44 7,0 C 78 % 1021,8 hPa 0,0 l/m 6,3 km/h (2 Bft) W-SW 245 0 min 0,000 mm 0,0 UV-I 72 W/m 3,4 C 7,0 C 9,7 km/h (2 Bft) 100,00 %
03.11.2016 14:46 7,0 C 79 % 1021,8 hPa 0,0 l/m 6,8 km/h (2 Bft) W 259 0 min 0,000 mm 0,0 UV-I 76 W/m 3,6 C 6,7 C 12,9 km/h (3 Bft) 100,00 %
03.11.2016 14:49 7,0 C 79 % 1021,7 hPa 0,0 l/m 3,8 km/h (1 Bft) W 259 0 min 0,000 mm 0,0 UV-I 79 W/m 3,6 C 7,0 C 6,4 km/h (2 Bft) 98,57 %
03.11.2016 14:50 7,1 C 80 % 1021,7 hPa 0,0 l/m 4,8 km/h (1 Bft) W 261 0 min 0,000 mm 0,0 UV-I 83 W/m 3,9 C 7,1 C 6,4 km/h (2 Bft) 100,00 %
03.11.2016 14:52 7,1 C 80 % 1021,8 hPa 0,0 l/m 6,2 km/h (2 Bft) W 277 0 min 0,000 mm 0,0 UV-I 85 W/m 3,9 C 7,1 C 8,0 km/h (2 Bft) 100,00 %
03.11.2016 14:55 7,1 C 79 % 1021,8 hPa 0,0 l/m 5,7 km/h (1 Bft) W 267 0 min 0,000 mm 0,0 UV-I 90 W/m 3,7 C 7,1 C 9,7 km/h (2 Bft) 98,46 %
03.11.2016 14:56 7,1 C 80 % 1021,8 hPa 0,0 l/m 5,1 km/h (1 Bft) W-SW 249 0 min 0,000 mm 0,0 UV-I 95 W/m 3,9 C 7,1 C 6,4 km/h (2 Bft) 100,00 %
03.11.2016 15:00 7,1 C 80 % 1021,8 hPa 0,0 l/m 5,4 km/h (1 Bft) W 267 0 min 0,051 mm 0,0 UV-I 97 W/m 3,9 C 7,1 C 11,3 km/h (2 Bft) 100,00 %
03.11.2016 15:02 7,2 C 79 % 1021,8 hPa 0,0 l/m 6,3 km/h (2 Bft) W-SW 249 0 min 0,000 mm 0,0 UV-I 106 W/m 3,8 C 7,2 C 11,3 km/h (2 Bft) 97,37 %
03.11.2016 15:04 7,2 C 79 % 1021,8 hPa 0,0 l/m 6,3 km/h (2 Bft) W-NW 282 2 min 0,000 mm 0,0 UV-I 129 W/m 3,8 C 7,2 C 11,3 km/h (2 Bft) 100,00 %
03.11.2016 15:06 7,2 C 79 % 1021,9 hPa 0,0 l/m 4,3 km/h (1 Bft) W 276 2 min 0,000 mm 0,0 UV-I 131 W/m 3,8 C 7,2 C 6,4 km/h (2 Bft) 100,00 %
03.11.2016 15:08 7,2 C 78 % 1021,9 hPa 0,0 l/m 6,3 km/h (2 Bft) W-SW 250 2 min 0,000 mm 0,0 UV-I 132 W/m 3,6 C 7,2 C 11,3 km/h (2 Bft) 98,11 %
03.11.2016 15:10 7,2 C 78 % 1021,8 hPa 0,0 l/m 6,7 km/h (2 Bft) W 275 0 min 0,000 mm 0,0 UV-I 109 W/m 3,6 C 7,0 C 9,7 km/h (2 Bft) 100,00 %
03.11.2016 15:12 7,2 C 78 % 1021,8 hPa 0,0 l/m 5,6 km/h (1 Bft) W 264 0 min 0,000 mm 0,0 UV-I 99 W/m 3,6 C 7,2 C 11,3 km/h (2 Bft) 98,08 %
03.11.2016 15:14 7,2 C 78 % 1021,8 hPa 0,0 l/m 4,4 km/h (1 Bft) W 280 0 min 0,000 mm 0,0 UV-I 92 W/m 3,6 C 7,2 C 6,4 km/h (2 Bft) 100,00 %
03.11.2016 15:16 7,2 C 78 % 1021,8 hPa 0,0 l/m 3,8 km/h (1 Bft) W-SW 256 0 min 0,000 mm 0,0 UV-I 102 W/m 3,6 C 7,2 C 11,3 km/h (2 Bft) 100,00 %
03.11.2016 15:18 7,2 C 78 % 1021,8 hPa 0,0 l/m 6,9 km/h (2 Bft) W-SW 258 2 min 0,000 mm 0,0 UV-I 121 W/m 3,6 C 6,8 C 11,3 km/h (2 Bft) 100,00 %
03.11.2016 15:20 7,2 C 78 % 1021,8 hPa 0,0 l/m 3,7 km/h (1 Bft) W-SW 258 2 min 0,000 mm 0,0 UV-I 107 W/m 3,6 C 7,2 C 6,4 km/h (2 Bft) 100,00 %
03.11.2016 15:22 7,2 C 79 % 1021,8 hPa 0,0 l/m 2,2 km/h (1 Bft) W-SW 258 2 min 0,000 mm 0,0 UV-I 126 W/m 3,8 C 7,2 C 4,8 km/h (1 Bft) 100,00 %
03.11.2016 15:24 7,3 C 79 % 1021,8 hPa 0,0 l/m 3,0 km/h (1 Bft) W 267 2 min 0,000 mm 0,0 UV-I 132 W/m 3,9 C 7,3 C 6,4 km/h (2 Bft) 100,00 %
03.11.2016 15:26 7,3 C 78 % 1021,8 hPa 0,0 l/m 4,9 km/h (1 Bft) W 263 2 min 0,000 mm 0,0 UV-I 162 W/m 3,7 C 7,3 C 11,3 km/h (2 Bft) 95,74 %
03.11.2016 15:28 7,3 C 78 % 1021,9 hPa 0,0 l/m 3,6 km/h (1 Bft) W-SW 254 2 min 0,000 mm 0,0 UV-I 176 W/m 3,7 C 7,3 C 9,7 km/h (2 Bft) 97,87 %
03.11.2016 15:30 7,3 C 78 % 1021,8 hPa 0,0 l/m 2,3 km/h (1 Bft) W 273 2 min 0,000 mm 0,0 UV-I 155 W/m 3,7 C 7,3 C 4,8 km/h (1 Bft) 98,00 %
03.11.2016 15:32 7,3 C 79 % 1021,9 hPa 0,0 l/m 1,7 km/h (1 Bft) W-NW 286 2 min 0,000 mm 0,0 UV-I 146 W/m 3,9 C 7,3 C 4,8 km/h (1 Bft) 97,56 %
03.11.2016 15:34 7,3 C 78 % 1021,9 hPa 0,0 l/m 5,2 km/h (1 Bft) W 267 2 min 0,000 mm 0,0 UV-I 131 W/m 3,7 C 7,3 C 9,7 km/h (2 Bft) 96,23 %
03.11.2016 15:36 7,3 C 78 % 1021,9 hPa 0,0 l/m 4,6 km/h (1 Bft) W 265 2 min 0,000 mm 0,0 UV-I 116 W/m 3,7 C 7,3 C 8,0 km/h (2 Bft) 95,12 %
03.11.2016 15:38 7,3 C 78 % 1021,9 hPa 0,0 l/m 1,5 km/h (1 Bft) W-NW 284 2 min 0,000 mm 0,0 UV-I 136 W/m 3,7 C 7,3 C 6,4 km/h (2 Bft) 98,18 %
03.11.2016 15:40 7,3 C 80 % 1021,9 hPa 0,0 l/m 2,4 km/h (1 Bft) NW 306 2 min 0,000 mm 0,0 UV-I 142 W/m 4,1 C 7,3 C 6,4 km/h (2 Bft) 96,00 %
03.11.2016 15:43 7,3 C 78 % 1022,0 hPa 0,0 l/m 3,1 km/h (1 Bft) W 272 3 min 0,000 mm 0,0 UV-I 152 W/m 3,7 C 7,3 C 6,4 km/h (2 Bft) 98,53 %
03.11.2016 15:44 7,4 C 78 % 1022,0 hPa 0,0 l/m 3,4 km/h (1 Bft) W-NW 302 1 min 0,000 mm 0,0 UV-I 155 W/m 3,8 C 7,4 C 4,8 km/h (1 Bft) 92,31 %
03.11.2016 15:46 7,4 C 78 % 1022,0 hPa 0,0 l/m 3,1 km/h (1 Bft) W-NW 283 2 min 0,000 mm 0,0 UV-I 116 W/m 3,8 C 7,4 C 6,4 km/h (2 Bft) 95,74 %
03.11.2016 15:48 7,4 C 78 % 1022,0 hPa 0,0 l/m 1,0 km/h (0 Bft) W-NW 284 2 min 0,000 mm 0,0 UV-I 90 W/m 3,8 C 7,4 C 3,2 km/h (1 Bft) 94,44 %
03.11.2016 15:50 7,3 C 78 % 1022,0 hPa 0,0 l/m 1,8 km/h (1 Bft) W-NW 284 2 min 0,000 mm 0,0 UV-I 70 W/m 3,7 C 7,3 C 4,8 km/h (1 Bft) 98,18 %
03.11.2016 15:52 7,3 C 78 % 1021,9 hPa 0,0 l/m 2,6 km/h (1 Bft) W-NW 289 0 min 0,000 mm 0,0 UV-I 58 W/m 3,7 C 7,3 C 4,8 km/h (1 Bft) 95,74 %
03.11.2016 15:54 7,2 C 79 % 1021,9 hPa 0,0 l/m 1,7 km/h (1 Bft) W-NW 289 0 min 0,000 mm 0,0 UV-I 48 W/m 3,8 C 7,2 C 4,8 km/h (1 Bft) 94,44 %
03.11.2016 15:56 7,2 C 79 % 1022,0 hPa 0,0 l/m 2,4 km/h (1 Bft) W-NW 294 0 min 0,000 mm 0,0 UV-I 40 W/m 3,8 C 7,2 C 6,4 km/h (2 Bft) 96,15 %
03.11.2016 15:58 7,1 C 80 % 1022,0 hPa 0,0 l/m 0,8 km/h (0 Bft) W-NW 298 0 min 0,000 mm 0,0 UV-I 38 W/m 3,9 C 7,1 C 3,2 km/h (1 Bft) 96,00 %
03.11.2016 16:00 7,0 C 79 % 1022,0 hPa 0,0 l/m 4,1 km/h (1 Bft) W 270 0 min 0,050 mm 0,0 UV-I 38 W/m 3,6 C 7,0 C 6,4 km/h (2 Bft) 95,74 %
03.11.2016 16:02 6,9 C 80 % 1022,1 hPa 0,0 l/m 1,5 km/h (1 Bft) W 270 0 min 0,000 mm 0,0 UV-I 38 W/m 3,7 C 6,9 C 3,2 km/h (1 Bft) 97,87 %
03.11.2016 16:04 6,9 C 80 % 1022,1 hPa 0,0 l/m 0,7 km/h (0 Bft) W 270 0 min 0,000 mm 0,0 UV-I 40 W/m 3,7 C 6,9 C 3,2 km/h (1 Bft) 98,00 %
03.11.2016 16:06 6,8 C 81 % 1022,0 hPa 0,0 l/m 1,4 km/h (1 Bft) W 270 2 min 0,000 mm 0,0 UV-I 52 W/m 3,8 C 6,8 C 1,6 km/h (1 Bft) 97,37 %
03.11.2016 16:09 6,7 C 80 % 1022,1 hPa 0,0 l/m 2,8 km/h (1 Bft) W-NW 290 3 min 0,000 mm 0,0 UV-I 47 W/m 3,5 C 6,7 C 6,4 km/h (2 Bft) 97,37 %
03.11.2016 16:10 6,7 C 80 % 1022,1 hPa 0,0 l/m 2,5 km/h (1 Bft) W-NW 290 1 min 0,000 mm 0,0 UV-I 40 W/m 3,5 C 6,7 C 3,2 km/h (1 Bft) 100,00 %
03.11.2016 16:12 6,7 C 81 % 1022,1 hPa 0,0 l/m 2,6 km/h (1 Bft) W-NW 286 2 min 0,000 mm 0,0 UV-I 41 W/m 3,7 C 6,7 C 6,4 km/h (2 Bft) 95,74 %
03.11.2016 16:14 6,6 C 82 % 1022,1 hPa 0,0 l/m 1,4 km/h (1 Bft) W-NW 286 2 min 0,000 mm 0,0 UV-I 37 W/m 3,8 C 6,6 C 3,2 km/h (1 Bft) 100,00 %
03.11.2016 16:16 6,5 C 82 % 1022,1 hPa 0,0 l/m 0,7 km/h (0 Bft) W-NW 286 2 min 0,000 mm 0,0 UV-I 32 W/m 3,7 C 6,5 C 3,2 km/h (1 Bft) 100,00 %
03.11.2016 16:18 6,4 C 83 % 1022,1 hPa 0,0 l/m 2,0 km/h (1 Bft) W-NW 286 2 min 0,000 mm 0,0 UV-I 28 W/m 3,7 C 6,4 C 4,8 km/h (1 Bft) 100,00 %
03.11.2016 16:20 6,3 C 83 % 1022,1 hPa 0,0 l/m 1,2 km/h (1 Bft) W-NW 286 2 min 0,000 mm 0,0 UV-I 24 W/m 3,6 C 6,3 C 3,2 km/h (1 Bft) 100,00 %
03.11.2016 16:23 6,2 C 83 % 1022,1 hPa 0,0 l/m 1,5 km/h (1 Bft) W-NW 286 0 min 0,000 mm 0,0 UV-I 19 W/m 3,5 C 6,2 C 3,2 km/h (1 Bft) 100,00 %
03.11.2016 16:24 6,2 C 83 % 1022,1 hPa 0,0 l/m 2,2 km/h (1 Bft) W-NW 286 0 min 0,000 mm 0,0 UV-I 16 W/m 3,5 C 6,2 C 3,2 km/h (1 Bft) 96,15 %
03.11.2016 16:26 6,2 C 83 % 1022,1 hPa 0,0 l/m 1,6 km/h (1 Bft) W-NW 286 0 min 0,000 mm 0,0 UV-I 14 W/m 3,5 C 6,2 C 3,2 km/h (1 Bft) 97,87 %
03.11.2016 16:28 6,1 C 83 % 1022,2 hPa 0,0 l/m 4,6 km/h (1 Bft) W-SW 248 2 min 0,000 mm 0,0 UV-I 13 W/m 3,4 C 6,1 C 9,7 km/h (2 Bft) 97,87 %
03.11.2016 16:30 6,1 C 83 % 1022,1 hPa 0,0 l/m 6,0 km/h (2 Bft) W-SW 258 2 min 0,000 mm 0,0 UV-I 12 W/m 3,4 C 6,1 C 11,3 km/h (2 Bft) 100,00 %
03.11.2016 16:32 6,1 C 83 % 1022,1 hPa 0,0 l/m 3,8 km/h (1 Bft) W-SW 257 0 min 0,000 mm 0,0 UV-I 11 W/m 3,4 C 6,1 C 6,4 km/h (2 Bft) 98,11 %
03.11.2016 16:34 6,1 C 83 % 1022,1 hPa 0,0 l/m 3,2 km/h (1 Bft) NW 304 0 min 0,000 mm 0,0 UV-I 11 W/m 3,4 C 6,1 C 8,0 km/h (2 Bft) 100,00 %
03.11.2016 16:36 6,1 C 82 % 1022,1 hPa 0,0 l/m 3,6 km/h (1 Bft) W 273 0 min 0,000 mm 0,0 UV-I 9 W/m 3,3 C 6,1 C 4,8 km/h (1 Bft) 98,21 %
03.11.2016 16:38 6,1 C 82 % 1022,1 hPa 0,0 l/m 2,6 km/h (1 Bft) W 277 0 min 0,000 mm 0,0 UV-I 8 W/m 3,3 C 6,1 C 6,4 km/h (2 Bft) 97,73 %
03.11.2016 16:40 6,0 C 83 % 1022,1 hPa 0,0 l/m 0,6 km/h (0 Bft) W 277 0 min 0,000 mm 0,0 UV-I 7 W/m 3,3 C 6,0 C 3,2 km/h (1 Bft) 97,87 %
03.11.2016 16:42 5,9 C 83 % 1022,2 hPa 0,0 l/m 0,9 km/h (0 Bft) W 277 0 min 0,000 mm 0,0 UV-I 7 W/m 3,2 C 5,9 C 3,2 km/h (1 Bft) 100,00 %
03.11.2016 16:44 5,8 C 83 % 1022,2 hPa 0,0 l/m 0,3 km/h (0 Bft) W 277 0 min 0,000 mm 0,0 UV-I 6 W/m 3,1 C 5,8 C 1,6 km/h (1 Bft) 100,00 %
03.11.2016 16:46 5,8 C 84 % 1022,1 hPa 0,0 l/m 1,1 km/h (1 Bft) W 277 0 min 0,000 mm 0,0 UV-I 5 W/m 3,3 C 5,8 C 3,2 km/h (1 Bft) 100,00 %
03.11.2016 16:48 5,7 C 84 % 1022,1 hPa 0,0 l/m 1,6 km/h (1 Bft) W 277 0 min 0,000 mm 0,0 UV-I 5 W/m 3,2 C 5,7 C 3,2 km/h (1 Bft) 100,00 %
03.11.2016 16:50 5,6 C 84 % 1022,1 hPa 0,0 l/m 2,1 km/h (1 Bft) W 277 0 min 0,000 mm 0,0 UV-I 5 W/m 3,1 C 5,6 C 3,2 km/h (1 Bft) 100,00 %
03.11.2016 16:52 5,5 C 85 % 1022,1 hPa 0,0 l/m 2,6 km/h (1 Bft) W 277 0 min 0,000 mm 0,0 UV-I 5 W/m 3,2 C 5,5 C 3,2 km/h (1 Bft) 97,37 %
03.11.2016 16:54 5,3 C 85 % 1022,2 hPa 0,0 l/m 0,2 km/h (0 Bft) W 277 0 min 0,000 mm 0,0 UV-I 3 W/m 3,0 C 5,3 C 1,6 km/h (1 Bft) 98,00 %
03.11.2016 16:56 4,9 C 85 % 1022,2 hPa 0,0 l/m 0,1 km/h (0 Bft) W 277 0 min 0,000 mm 0,0 UV-I 0 W/m 2,6 C 4,9 C 1,6 km/h (1 Bft) 94,00 %
03.11.2016 16:58 4,7 C 86 % 1022,1 hPa 0,0 l/m 0,3 km/h (0 Bft) W 277 0 min 0,000 mm 0,0 UV-I 0 W/m 2,6 C 4,7 C 3,2 km/h (1 Bft) 97,50 %
03.11.2016 17:00 4,5 C 87 % 1022,2 hPa 0,0 l/m 1,1 km/h (1 Bft) W 277 0 min 0,000 mm 0,0 UV-I 0 W/m 2,5 C 4,5 C 1,6 km/h (1 Bft) 100,00 %
03.11.2016 17:02 4,3 C 88 % 1022,2 hPa 0,0 l/m 0,9 km/h (0 Bft) W 277 0 min 0,000 mm 0,0 UV-I 0 W/m 2,5 C 4,3 C 1,6 km/h (1 Bft) 100,00 %
03.11.2016 17:04 4,2 C 88 % 1022,2 hPa 0,0 l/m 0,7 km/h (0 Bft) W 277 0 min 0,000 mm 0,0 UV-I 0 W/m 2,4 C 4,2 C 1,6 km/h (1 Bft) 100,00 %
03.11.2016 17:06 4,1 C 88 % 1022,2 hPa 0,0 l/m 0,7 km/h (0 Bft) W 277 0 min 0,000 mm 0,0 UV-I 0 W/m 2,3 C 4,1 C 1,6 km/h (1 Bft) 100,00 %
03.11.2016 17:08 4,0 C 89 % 1022,2 hPa 0,0 l/m 0,9 km/h (0 Bft) W 277 0 min 0,000 mm 0,0 UV-I 0 W/m 2,4 C 4,0 C 1,6 km/h (1 Bft) 97,44 %
03.11.2016 17:10 3,9 C 90 % 1022,1 hPa 0,0 l/m 1,2 km/h (1 Bft) W 274 0 min 0,000 mm 0,0 UV-I 0 W/m 2,4 C 3,9 C 3,2 km/h (1 Bft) 100,00 %
03.11.2016 17:12 3,9 C 90 % 1022,2 hPa 0,0 l/m 1,8 km/h (1 Bft) SW 226 0 min 0,000 mm 0,0 UV-I 0 W/m 2,4 C 3,9 C 3,2 km/h (1 Bft) 100,00 %
03.11.2016 17:14 3,8 C 90 % 1022,1 hPa 0,0 l/m 1,8 km/h (1 Bft) SW 226 0 min 0,000 mm 0,0 UV-I 0 W/m 2,3 C 3,8 C 3,2 km/h (1 Bft) 97,56 %
03.11.2016 17:16 3,8 C 90 % 1022,2 hPa 0,0 l/m 1,1 km/h (1 Bft) SW 226 0 min 0,000 mm 0,0 UV-I 0 W/m 2,3 C 3,8 C 3,2 km/h (1 Bft) 100,00 %
03.11.2016 17:18 3,7 C 90 % 1022,2 hPa 0,0 l/m 1,2 km/h (1 Bft) SW 226 0 min 0,000 mm 0,0 UV-I 0 W/m 2,2 C 3,7 C 1,6 km/h (1 Bft) 98,00 %
03.11.2016 17:20 3,6 C 90 % 1022,2 hPa 0,0 l/m 1,7 km/h (1 Bft) SW 226 0 min 0,000 mm 0,0 UV-I 0 W/m 2,1 C 3,6 C 3,2 km/h (1 Bft) 100,00 %
03.11.2016 17:22 3,6 C 91 % 1022,2 hPa 0,0 l/m 1,5 km/h (1 Bft) SW 226 0 min 0,000 mm 0,0 UV-I 0 W/m 2,3 C 3,6 C 3,2 km/h (1 Bft) 100,00 %
03.11.2016 17:24 3,6 C 91 % 1022,2 hPa 0,0 l/m 0,6 km/h (0 Bft) SW 226 0 min 0,000 mm 0,0 UV-I 0 W/m 2,3 C 3,6 C 1,6 km/h (1 Bft) 98,00 %
03.11.2016 17:26 3,6 C 91 % 1022,2 hPa 0,0 l/m 0,5 km/h (0 Bft) SW 226 0 min 0,000 mm 0,0 UV-I 0 W/m 2,3 C 3,6 C 1,6 km/h (1 Bft) 100,00 %
03.11.2016 17:28 3,7 C 91 % 1022,2 hPa 0,0 l/m 0,2 km/h (0 Bft) SW 226 0 min 0,000 mm 0,0 UV-I 0 W/m 2,4 C 3,7 C 1,6 km/h (1 Bft) 100,00 %
03.11.2016 17:30 3,7 C 91 % 1022,2 hPa 0,0 l/m 0,0 km/h (0 Bft) SW 226 0 min 0,000 mm 0,0 UV-I 0 W/m 2,4 C 3,7 C 0,0 km/h (0 Bft) 100,00 %
03.11.2016 17:32 3,7 C 91 % 1022,3 hPa 0,0 l/m 0,0 km/h (0 Bft) SW 226 0 min 0,000 mm 0,0 UV-I 0 W/m 2,4 C 3,7 C 1,6 km/h (1 Bft) 100,00 %
03.11.2016 17:34 3,6 C 90 % 1022,3 hPa 0,0 l/m 0,0 km/h (0 Bft) SW 226 0 min 0,000 mm 0,0 UV-I 0 W/m 2,1 C 3,6 C 0,0 km/h (0 Bft) 100,00 %
03.11.2016 17:36 3,5 C 91 % 1022,3 hPa 0,0 l/m 0,6 km/h (0 Bft) SW 226 0 min 0,000 mm 0,0 UV-I 0 W/m 2,2 C 3,5 C 1,6 km/h (1 Bft) 100,00 %
03.11.2016 17:38 3,5 C 91 % 1022,3 hPa 0,0 l/m 1,6 km/h (1 Bft) SW 226 0 min 0,000 mm 0,0 UV-I 0 W/m 2,2 C 3,5 C 3,2 km/h (1 Bft) 100,00 %
03.11.2016 17:40 3,5 C 91 % 1022,2 hPa 0,0 l/m 2,5 km/h (1 Bft) SW 226 0 min 0,000 mm 0,0 UV-I 0 W/m 2,2 C 3,5 C 3,2 km/h (1 Bft) 100,00 %
03.11.2016 17:42 3,3 C 90 % 1022,2 hPa 0,0 l/m 3,4 km/h (1 Bft) SW 226 0 min 0,000 mm 0,0 UV-I 0 W/m 1,8 C 3,3 C 4,8 km/h (1 Bft) 100,00 %
03.11.2016 17:44 3,2 C 91 % 1022,2 hPa 0,0 l/m 2,4 km/h (1 Bft) SW 226 0 min 0,000 mm 0,0 UV-I 0 W/m 1,9 C 3,2 C 3,2 km/h (1 Bft) 97,87 %
03.11.2016 17:46 3,2 C 92 % 1022,2 hPa 0,0 l/m 2,3 km/h (1 Bft) SW 226 0 min 0,000 mm 0,0 UV-I 0 W/m 2,0 C 3,2 C 3,2 km/h (1 Bft) 100,00 %
03.11.2016 17:48 3,3 C 92 % 1022,2 hPa 0,0 l/m 1,9 km/h (1 Bft) SW 226 0 min 0,000 mm 0,0 UV-I 0 W/m 2,1 C 3,3 C 3,2 km/h (1 Bft) 100,00 %
03.11.2016 17:50 3,4 C 92 % 1022,2 hPa 0,0 l/m 0,4 km/h (0 Bft) SW 226 0 min 0,000 mm 0,0 UV-I 0 W/m 2,2 C 3,4 C 1,6 km/h (1 Bft) 100,00 %
03.11.2016 17:52 3,4 C 92 % 1022,2 hPa 0,0 l/m 0,8 km/h (0 Bft) SW 226 0 min 0,000 mm 0,0 UV-I 0 W/m 2,2 C 3,4 C 1,6 km/h (1 Bft) 97,37 %
03.11.2016 17:54 3,5 C 91 % 1022,4 hPa 0,0 l/m 1,2 km/h (1 Bft) SW 226 0 min 0,000 mm 0,0 UV-I 0 W/m 2,2 C 3,5 C 1,6 km/h (1 Bft) 98,11 %
03.11.2016 17:56 3,6 C 91 % 1022,3 hPa 0,0 l/m 0,7 km/h (0 Bft) SW 226 0 min 0,000 mm 0,0 UV-I 0 W/m 2,3 C 3,6 C 1,6 km/h (1 Bft) 97,87 %
03.11.2016 17:58 3,5 C 91 % 1022,3 hPa 0,0 l/m 1,4 km/h (1 Bft) SW 226 0 min 0,000 mm 0,0 UV-I 0 W/m 2,2 C 3,5 C 3,2 km/h (1 Bft) 93,62 %
03.11.2016 18:00 3,3 C 90 % 1022,3 hPa 0,0 l/m 1,4 km/h (1 Bft) SW 226 0 min 0,000 mm 0,0 UV-I 0 W/m 1,8 C 3,3 C 3,2 km/h (1 Bft) 96,00 %
03.11.2016 18:02 3,2 C 91 % 1022,3 hPa 0,0 l/m 0,5 km/h (0 Bft) SW 226 0 min 0,000 mm 0,0 UV-I 0 W/m 1,9 C 3,2 C 1,6 km/h (1 Bft) 97,87 %
03.11.2016 18:04 3,2 C 91 % 1022,4 hPa 0,0 l/m 0,1 km/h (0 Bft) SW 226 0 min 0,000 mm 0,0 UV-I 0 W/m 1,9 C 3,2 C 1,6 km/h (1 Bft) 95,74 %
03.11.2016 18:06 3,2 C 91 % 1022,4 hPa 0,0 l/m 0,7 km/h (0 Bft) SW 226 0 min 0,000 mm 0,0 UV-I 0 W/m 1,9 C 3,2 C 1,6 km/h (1 Bft) 98,00 %
03.11.2016 18:08 3,1 C 91 % 1022,4 hPa 0,0 l/m 1,4 km/h (1 Bft) SW 226 0 min 0,000 mm 0,0 UV-I 0 W/m 1,8 C 3,1 C 3,2 km/h (1 Bft) 97,14 %
03.11.2016 18:10 2,9 C 91 % 1022,4 hPa 0,0 l/m 1,4 km/h (1 Bft) SW 226 0 min 0,000 mm 0,0 UV-I 0 W/m 1,6 C 2,9 C 3,2 km/h (1 Bft) 98,11 %
03.11.2016 18:13 2,7 C 92 % 1022,4 hPa 0,0 l/m 0,3 km/h (0 Bft) SW 226 0 min 0,000 mm 0,0 UV-I 0 W/m 1,5 C 2,7 C 1,6 km/h (1 Bft) 96,20 %
03.11.2016 18:14 2,7 C 93 % 1022,4 hPa 0,0 l/m 0,2 km/h (0 Bft) SW 226 0 min 0,000 mm 0,0 UV-I 0 W/m 1,7 C 2,7 C 1,6 km/h (1 Bft) 100,00 %
03.11.2016 18:16 2,7 C 93 % 1022,4 hPa 0,0 l/m 1,1 km/h (1 Bft) SW 226 0 min 0,000 mm 0,0 UV-I 0 W/m 1,7 C 2,7 C 1,6 km/h (1 Bft) 96,00 %
03.11.2016 18:18 2,7 C 93 % 1022,4 hPa 0,0 l/m 2,2 km/h (1 Bft) SW 226 0 min 0,000 mm 0,0 UV-I 0 W/m 1,7 C 2,7 C 3,2 km/h (1 Bft) 98,00 %
03.11.2016 18:20 2,7 C 93 % 1022,4 hPa 0,0 l/m 2,2 km/h (1 Bft) SW 226 0 min 0,000 mm 0,0 UV-I 0 W/m 1,7 C 2,7 C 3,2 km/h (1 Bft) 97,37 %
03.11.2016 18:22 2,6 C 93 % 1022,4 hPa 0,0 l/m 2,7 km/h (1 Bft) SW 226 0 min 0,000 mm 0,0 UV-I 0 W/m 1,6 C 2,6 C 3,2 km/h (1 Bft) 98,21 %
03.11.2016 18:24 2,6 C 93 % 1022,4 hPa 0,0 l/m 2,3 km/h (1 Bft) SW 226 0 min 0,000 mm 0,0 UV-I 0 W/m 1,6 C 2,6 C 3,2 km/h (1 Bft) 97,56 %
03.11.2016 18:26 2,5 C 93 % 1022,5 hPa 0,0 l/m 1,7 km/h (1 Bft) SW 226 0 min 0,000 mm 0,0 UV-I 0 W/m 1,5 C 2,5 C 3,2 km/h (1 Bft) 100,00 %
03.11.2016 18:28 2,5 C 93 % 1022,5 hPa 0,0 l/m 1,4 km/h (1 Bft) SW 226 0 min 0,000 mm 0,0 UV-I 0 W/m 1,5 C 2,5 C 3,2 km/h (1 Bft) 97,37 %
03.11.2016 18:30 2,5 C 94 % 1022,4 hPa 0,0 l/m 0,1 km/h (0 Bft) SW 226 0 min 0,000 mm 0,0 UV-I 0 W/m 1,6 C 2,5 C 1,6 km/h (1 Bft) 100,00 %
03.11.2016 18:32 2,5 C 93 % 1022,4 hPa 0,0 l/m 0,6 km/h (0 Bft) SW 226 0 min 0,000 mm 0,0 UV-I 0 W/m 1,5 C 2,5 C 3,2 km/h (1 Bft) 100,00 %
03.11.2016 18:34 2,3 C 93 % 1022,5 hPa 0,0 l/m 2,1 km/h (1 Bft) SW 226 0 min 0,000 mm 0,0 UV-I 0 W/m 1,3 C 2,3 C 3,2 km/h (1 Bft) 100,00 %
03.11.2016 18:36 2,2 C 92 % 1022,5 hPa 0,0 l/m 2,8 km/h (1 Bft) SW 226 0 min 0,000 mm 0,0 UV-I 0 W/m 1,0 C 2,2 C 4,8 km/h (1 Bft) 100,00 %
03.11.2016 18:38 2,2 C 94 % 1022,4 hPa 0,0 l/m 3,0 km/h (1 Bft) SW 226 0 min 0,000 mm 0,0 UV-I 0 W/m 1,3 C 2,2 C 4,8 km/h (1 Bft) 100,00 %
03.11.2016 18:40 2,3 C 94 % 1022,5 hPa 0,0 l/m 1,5 km/h (1 Bft) SW 226 0 min 0,000 mm 0,0 UV-I 0 W/m 1,4 C 2,3 C 3,2 km/h (1 Bft) 98,00 %
03.11.2016 18:42 2,2 C 93 % 1022,5 hPa 0,0 l/m 0,7 km/h (0 Bft) SW 226 0 min 0,000 mm 0,0 UV-I 0 W/m 1,2 C 2,2 C 3,2 km/h (1 Bft) 100,00 %
03.11.2016 18:44 2,2 C 94 % 1022,5 hPa 0,0 l/m 0,0 km/h (0 Bft) SW 226 0 min 0,000 mm 0,0 UV-I 0 W/m 1,3 C 2,2 C 0,0 km/h (0 Bft) 100,00 %
03.11.2016 18:46 2,2 C 94 % 1022,5 hPa 0,0 l/m 0,0 km/h (0 Bft) SW 226 0 min 0,000 mm 0,0 UV-I 0 W/m 1,3 C 2,2 C 0,0 km/h (0 Bft) 100,00 %
03.11.2016 18:48 2,2 C 94 % 1022,5 hPa 0,0 l/m 0,0 km/h (0 Bft) SW 226 0 min 0,000 mm 0,0 UV-I 0 W/m 1,3 C 2,2 C 0,0 km/h (0 Bft) 97,56 %
03.11.2016 18:50 2,2 C 94 % 1022,4 hPa 0,0 l/m 0,3 km/h (0 Bft) SW 226 0 min 0,000 mm 0,0 UV-I 0 W/m 1,3 C 2,2 C 1,6 km/h (1 Bft) 100,00 %
03.11.2016 18:52 2,3 C 94 % 1022,4 hPa 0,0 l/m 1,4 km/h (1 Bft) SW 226 0 min 0,000 mm 0,0 UV-I 0 W/m 1,4 C 2,3 C 3,2 km/h (1 Bft) 97,56 %
03.11.2016 18:54 2,3 C 94 % 1022,4 hPa 0,0 l/m 0,0 km/h (0 Bft) SW 226 0 min 0,000 mm 0,0 UV-I 0 W/m 1,4 C 2,3 C 0,0 km/h (0 Bft) 100,00 %
03.11.2016 18:56 2,3 C 94 % 1022,5 hPa 0,0 l/m 0,8 km/h (0 Bft) SW 226 0 min 0,000 mm 0,0 UV-I 0 W/m 1,4 C 2,3 C 1,6 km/h (1 Bft) 100,00 %
03.11.2016 18:58 2,3 C 94 % 1022,5 hPa 0,0 l/m 0,2 km/h (0 Bft) SW 226 0 min 0,000 mm 0,0 UV-I 0 W/m 1,4 C 2,3 C 1,6 km/h (1 Bft) 100,00 %
03.11.2016 19:00 2,2 C 94 % 1022,5 hPa 0,0 l/m 1,3 km/h (1 Bft) SW 226 0 min 0,000 mm 0,0 UV-I 0 W/m 1,3 C 2,2 C 3,2 km/h (1 Bft) 100,00 %
03.11.2016 19:02 2,2 C 94 % 1022,5 hPa 0,0 l/m 1,9 km/h (1 Bft) SW 226 0 min 0,000 mm 0,0 UV-I 0 W/m 1,3 C 2,2 C 3,2 km/h (1 Bft) 100,00 %
03.11.2016 19:04 2,2 C 94 % 1022,5 hPa 0,0 l/m 1,9 km/h (1 Bft) SW 226 0 min 0,000 mm 0,0 UV-I 0 W/m 1,3 C 2,2 C 3,2 km/h (1 Bft) 98,00 %
03.11.2016 19:06 2,2 C 94 % 1022,4 hPa 0,0 l/m 1,5 km/h (1 Bft) SW 226 0 min 0,000 mm 0,0 UV-I 0 W/m 1,3 C 2,2 C 3,2 km/h (1 Bft) 100,00 %
03.11.2016 19:08 2,2 C 94 % 1022,4 hPa 0,0 l/m 2,5 km/h (1 Bft) SW 224 0 min 0,000 mm 0,0 UV-I 0 W/m 1,3 C 2,2 C 4,8 km/h (1 Bft) 98,11 %
03.11.2016 19:10 2,2 C 94 % 1022,4 hPa 0,0 l/m 3,5 km/h (1 Bft) SW 224 0 min 0,000 mm 0,0 UV-I 0 W/m 1,3 C 2,2 C 4,8 km/h (1 Bft) 100,00 %
03.11.2016 19:12 2,2 C 94 % 1022,4 hPa 0,0 l/m 2,6 km/h (1 Bft) SW 224 0 min 0,000 mm 0,0 UV-I 0 W/m 1,3 C 2,2 C 4,8 km/h (1 Bft) 100,00 %
03.11.2016 19:14 2,1 C 94 % 1022,4 hPa 0,0 l/m 2,6 km/h (1 Bft) SW 224 0 min 0,000 mm 0,0 UV-I 0 W/m 1,2 C 2,1 C 3,2 km/h (1 Bft) 100,00 %
03.11.2016 19:16 2,3 C 95 % 1022,4 hPa 0,0 l/m 3,1 km/h (1 Bft) SW 224 0 min 0,000 mm 0,0 UV-I 0 W/m 1,6 C 2,3 C 4,8 km/h (1 Bft) 100,00 %
03.11.2016 19:18 2,4 C 95 % 1022,4 hPa 0,0 l/m 3,2 km/h (1 Bft) SW 224 0 min 0,000 mm 0,0 UV-I 0 W/m 1,7 C 2,4 C 4,8 km/h (1 Bft) 100,00 %
03.11.2016 19:20 2,5 C 94 % 1022,4 hPa 0,0 l/m 1,0 km/h (0 Bft) SW 224 0 min 0,000 mm 0,0 UV-I 0 W/m 1,6 C 2,5 C 3,2 km/h (1 Bft) 96,43 %
03.11.2016 19:22 2,4 C 94 % 1022,5 hPa 0,0 l/m 1,2 km/h (1 Bft) SW 224 0 min 0,000 mm 0,0 UV-I 0 W/m 1,5 C 2,4 C 3,2 km/h (1 Bft) 100,00 %
03.11.2016 19:24 2,3 C 93 % 1022,5 hPa 0,0 l/m 2,5 km/h (1 Bft) SW 224 0 min 0,000 mm 0,0 UV-I 0 W/m 1,3 C 2,3 C 4,8 km/h (1 Bft) 100,00 %
03.11.2016 19:26 2,2 C 94 % 1022,5 hPa 0,0 l/m 1,3 km/h (1 Bft) SW 219 0 min 0,000 mm 0,0 UV-I 0 W/m 1,3 C 2,2 C 3,2 km/h (1 Bft) 100,00 %
03.11.2016 19:28 2,2 C 94 % 1022,4 hPa 0,0 l/m 0,1 km/h (0 Bft) SW 219 0 min 0,000 mm 0,0 UV-I 0 W/m 1,3 C 2,2 C 1,6 km/h (1 Bft) 100,00 %
03.11.2016 19:30 2,0 C 93 % 1022,4 hPa 0,0 l/m 1,3 km/h (1 Bft) SW 219 0 min 0,000 mm 0,0 UV-I 0 W/m 1,0 C 2,0 C 3,2 km/h (1 Bft) 100,00 %
03.11.2016 19:32 1,9 C 94 % 1022,4 hPa 0,0 l/m 0,9 km/h (0 Bft) SW 219 0 min 0,000 mm 0,0 UV-I 0 W/m 1,0 C 1,9 C 3,2 km/h (1 Bft) 100,00 %
03.11.2016 19:34 2,0 C 94 % 1022,4 hPa 0,0 l/m 1,6 km/h (1 Bft) SW 219 0 min 0,000 mm 0,0 UV-I 0 W/m 1,1 C 2,0 C 3,2 km/h (1 Bft) 100,00 %
03.11.2016 19:36 2,1 C 94 % 1022,4 hPa 0,0 l/m 0,8 km/h (0 Bft) SW 219 0 min 0,000 mm 0,0 UV-I 0 W/m 1,2 C 2,1 C 1,6 km/h (1 Bft) 100,00 %
03.11.2016 19:38 2,1 C 94 % 1022,4 hPa 0,0 l/m 0,6 km/h (0 Bft) SW 219 0 min 0,000 mm 0,0 UV-I 0 W/m 1,2 C 2,1 C 3,2 km/h (1 Bft) 100,00 %
03.11.2016 19:40 2,1 C 94 % 1022,4 hPa 0,0 l/m 0,7 km/h (0 Bft) SW 219 0 min 0,000 mm 0,0 UV-I 0 W/m 1,2 C 2,1 C 1,6 km/h (1 Bft) 98,00 %
03.11.2016 19:42 2,0 C 94 % 1022,4 hPa 0,0 l/m 0,2 km/h (0 Bft) SW 219 0 min 0,000 mm 0,0 UV-I 0 W/m 1,1 C 2,0 C 1,6 km/h (1 Bft) 100,00 %
03.11.2016 19:44 2,2 C 94 % 1022,4 hPa 0,0 l/m 0,1 km/h (0 Bft) SW 219 0 min 0,000 mm 0,0 UV-I 0 W/m 1,3 C 2,2 C 1,6 km/h (1 Bft) 100,00 %
03.11.2016 19:46 2,3 C 94 % 1022,5 hPa 0,0 l/m 1,5 km/h (1 Bft) SW 219 0 min 0,000 mm 0,0 UV-I 0 W/m 1,4 C 2,3 C 3,2 km/h (1 Bft) 100,00 %
03.11.2016 19:48 2,4 C 94 % 1022,4 hPa 0,0 l/m 2,4 km/h (1 Bft) SW 219 0 min 0,000 mm 0,0 UV-I 0 W/m 1,5 C 2,4 C 3,2 km/h (1 Bft) 100,00 %
03.11.2016 19:50 2,4 C 94 % 1022,4 hPa 0,0 l/m 1,1 km/h (1 Bft) SW 219 0 min 0,000 mm 0,0 UV-I 0 W/m 1,5 C 2,4 C 3,2 km/h (1 Bft) 97,78 %
03.11.2016 19:52 2,3 C 93 % 1022,4 hPa 0,0 l/m 0,0 km/h (0 Bft) SW 219 0 min 0,000 mm 0,0 UV-I 0 W/m 1,3 C 2,3 C 1,6 km/h (1 Bft) 100,00 %
03.11.2016 19:54 2,1 C 93 % 1022,4 hPa 0,0 l/m 0,5 km/h (0 Bft) SW 219 0 min 0,000 mm 0,0 UV-I 0 W/m 1,1 C 2,1 C 1,6 km/h (1 Bft) 100,00 %
03.11.2016 19:56 1,6 C 92 % 1022,4 hPa 0,0 l/m 0,0 km/h (0 Bft) SW 219 0 min 0,000 mm 0,0 UV-I 0 W/m 0,4 C 1,6 C 0,0 km/h (0 Bft) 100,00 %
03.11.2016 19:58 1,6 C 94 % 1022,4 hPa 0,0 l/m 0,0 km/h (0 Bft) SW 219 0 min 0,000 mm 0,0 UV-I 0 W/m 0,7 C 1,6 C 0,0 km/h (0 Bft) 100,00 %
03.11.2016 20:00 1,7 C 94 % 1022,4 hPa 0,0 l/m 0,4 km/h (0 Bft) SW 219 0 min 0,000 mm 0,0 UV-I 0 W/m 0,8 C 1,7 C 1,6 km/h (1 Bft) 95,74 %
03.11.2016 20:02 1,7 C 94 % 1022,5 hPa 0,0 l/m 1,1 km/h (1 Bft) SW 219 0 min 0,000 mm 0,0 UV-I 0 W/m 0,8 C 1,7 C 3,2 km/h (1 Bft) 95,45 %
03.11.2016 20:04 1,7 C 94 % 1022,5 hPa 0,0 l/m 1,6 km/h (1 Bft) SW 219 0 min 0,000 mm 0,0 UV-I 0 W/m 0,8 C 1,7 C 3,2 km/h (1 Bft) 96,00 %
03.11.2016 20:06 1,7 C 94 % 1022,5 hPa 0,0 l/m 0,6 km/h (0 Bft) SW 219 0 min 0,000 mm 0,0 UV-I 0 W/m 0,8 C 1,7 C 1,6 km/h (1 Bft) 98,11 %
03.11.2016 20:08 1,8 C 95 % 1022,4 hPa 0,0 l/m 0,4 km/h (0 Bft) SW 219 0 min 0,000 mm 0,0 UV-I 0 W/m 1,1 C 1,8 C 3,2 km/h (1 Bft) 94,74 %
03.11.2016 20:10 1,9 C 95 % 1022,5 hPa 0,0 l/m 0,7 km/h (0 Bft) SW 219 0 min 0,000 mm 0,0 UV-I 0 W/m 1,2 C 1,9 C 3,2 km/h (1 Bft) 97,87 %
03.11.2016 20:12 2,0 C 95 % 1022,5 hPa 0,0 l/m 1,2 km/h (1 Bft) SW 219 0 min 0,000 mm 0,0 UV-I 0 W/m 1,3 C 2,0 C 3,2 km/h (1 Bft) 97,92 %
03.11.2016 20:14 2,1 C 95 % 1022,5 hPa 0,0 l/m 0,9 km/h (0 Bft) SW 219 0 min 0,000 mm 0,0 UV-I 0 W/m 1,4 C 2,1 C 3,2 km/h (1 Bft) 98,11 %
03.11.2016 20:16 2,1 C 95 % 1022,5 hPa 0,0 l/m 0,7 km/h (0 Bft) SW 219 0 min 0,000 mm 0,0 UV-I 0 W/m 1,4 C 2,1 C 3,2 km/h (1 Bft) 96,30 %
03.11.2016 20:18 2,0 C 94 % 1022,4 hPa 0,0 l/m 1,8 km/h (1 Bft) S 177 0 min 0,000 mm 0,0 UV-I 0 W/m 1,1 C 2,0 C 3,2 km/h (1 Bft) 97,14 %
03.11.2016 20:20 2,0 C 94 % 1022,4 hPa 0,0 l/m 1,7 km/h (1 Bft) S 177 0 min 0,000 mm 0,0 UV-I 0 W/m 1,1 C 2,0 C 3,2 km/h (1 Bft) 95,12 %
03.11.2016 20:22 2,1 C 94 % 1022,4 hPa 0,0 l/m 2,2 km/h (1 Bft) S-SO 150 0 min 0,000 mm 0,0 UV-I 0 W/m 1,2 C 2,1 C 6,4 km/h (2 Bft) 98,00 %
03.11.2016 20:24 2,2 C 94 % 1022,4 hPa 0,0 l/m 1,3 km/h (1 Bft) S-SO 150 0 min 0,000 mm 0,0 UV-I 0 W/m 1,3 C 2,2 C 3,2 km/h (1 Bft) 94,74 %
03.11.2016 20:26 2,1 C 94 % 1022,4 hPa 0,0 l/m 1,7 km/h (1 Bft) S-SO 150 0 min 0,000 mm 0,0 UV-I 0 W/m 1,2 C 2,1 C 3,2 km/h (1 Bft) 98,11 %
03.11.2016 20:28 2,0 C 94 % 1022,4 hPa 0,0 l/m 1,6 km/h (1 Bft) S-SO 150 0 min 0,000 mm 0,0 UV-I 0 W/m 1,1 C 2,0 C 3,2 km/h (1 Bft) 95,74 %
03.11.2016 20:30 2,1 C 94 % 1022,4 hPa 0,0 l/m 2,0 km/h (1 Bft) S-SO 150 0 min 0,000 mm 0,0 UV-I 0 W/m 1,2 C 2,1 C 3,2 km/h (1 Bft) 97,92 %
03.11.2016 20:32 2,1 C 94 % 1022,4 hPa 0,0 l/m 2,8 km/h (1 Bft) S-SO 150 0 min 0,000 mm 0,0 UV-I 0 W/m 1,2 C 2,1 C 4,8 km/h (1 Bft) 97,37 %
03.11.2016 20:34 2,1 C 94 % 1022,4 hPa 0,0 l/m 1,2 km/h (1 Bft) S-SO 150 0 min 0,000 mm 0,0 UV-I 0 W/m 1,2 C 2,1 C 3,2 km/h (1 Bft) 98,11 %
03.11.2016 20:36 1,9 C 94 % 1022,4 hPa 0,0 l/m 0,2 km/h (0 Bft) S-SO 150 0 min 0,000 mm 0,0 UV-I 0 W/m 1,0 C 1,9 C 1,6 km/h (1 Bft) 98,08 %
03.11.2016 20:38 1,7 C 93 % 1022,4 hPa 0,0 l/m 1,7 km/h (1 Bft) S-SO 150 0 min 0,000 mm 0,0 UV-I 0 W/m 0,7 C 1,7 C 3,2 km/h (1 Bft) 100,00 %
03.11.2016 20:40 1,7 C 94 % 1022,4 hPa 0,0 l/m 2,1 km/h (1 Bft) S-SO 150 0 min 0,000 mm 0,0 UV-I 0 W/m 0,8 C 1,7 C 3,2 km/h (1 Bft) 98,00 %
03.11.2016 20:42 1,7 C 94 % 1022,5 hPa 0,0 l/m 1,8 km/h (1 Bft) S-SO 150 0 min 0,000 mm 0,0 UV-I 0 W/m 0,8 C 1,7 C 3,2 km/h (1 Bft) 97,87 %
03.11.2016 20:44 1,7 C 94 % 1022,5 hPa 0,0 l/m 2,3 km/h (1 Bft) S-SO 150 0 min 0,000 mm 0,0 UV-I 0 W/m 0,8 C 1,7 C 3,2 km/h (1 Bft) 100,00 %
03.11.2016 20:46 1,5 C 94 % 1022,5 hPa 0,0 l/m 3,1 km/h (1 Bft) S-SO 150 0 min 0,000 mm 0,0 UV-I 0 W/m 0,6 C 1,5 C 4,8 km/h (1 Bft) 100,00 %
03.11.2016 20:48 1,4 C 94 % 1022,5 hPa 0,0 l/m 2,5 km/h (1 Bft) S-SO 150 0 min 0,000 mm 0,0 UV-I 0 W/m 0,5 C 1,4 C 3,2 km/h (1 Bft) 100,00 %
03.11.2016 20:50 1,3 C 94 % 1022,5 hPa 0,0 l/m 1,2 km/h (1 Bft) S-SO 150 0 min 0,000 mm 0,0 UV-I 0 W/m 0,4 C 1,3 C 3,2 km/h (1 Bft) 100,00 %
03.11.2016 20:52 1,3 C 95 % 1022,5 hPa 0,0 l/m 2,4 km/h (1 Bft) S-SO 150 0 min 0,000 mm 0,0 UV-I 0 W/m 0,6 C 1,3 C 3,2 km/h (1 Bft) 100,00 %
03.11.2016 20:54 1,2 C 95 % 1022,5 hPa 0,0 l/m 2,3 km/h (1 Bft) S-SO 150 0 min 0,000 mm 0,0 UV-I 0 W/m 0,5 C 1,2 C 3,2 km/h (1 Bft) 98,00 %
03.11.2016 20:56 1,2 C 95 % 1022,5 hPa 0,0 l/m 2,4 km/h (1 Bft) S-SO 150 0 min 0,000 mm 0,0 UV-I 0 W/m 0,5 C 1,2 C 3,2 km/h (1 Bft) 100,00 %
03.11.2016 20:58 1,2 C 95 % 1022,5 hPa 0,0 l/m 1,7 km/h (1 Bft) S-SO 150 0 min 0,000 mm 0,0 UV-I 0 W/m 0,5 C 1,2 C 3,2 km/h (1 Bft) 97,87 %
03.11.2016 21:00 1,2 C 95 % 1022,5 hPa 0,0 l/m 1,1 km/h (1 Bft) S-SO 150 0 min 0,000 mm 0,0 UV-I 0 W/m 0,5 C 1,2 C 3,2 km/h (1 Bft) 97,37 %
03.11.2016 21:02 1,1 C 95 % 1022,6 hPa 0,0 l/m 0,3 km/h (0 Bft) S-SO 150 0 min 0,000 mm 0,0 UV-I 0 W/m 0,4 C 1,1 C 1,6 km/h (1 Bft) 98,00 %
03.11.2016 21:04 1,1 C 95 % 1022,5 hPa 0,0 l/m 0,4 km/h (0 Bft) S-SO 150 0 min 0,000 mm 0,0 UV-I 0 W/m 0,4 C 1,1 C 1,6 km/h (1 Bft) 100,00 %
03.11.2016 21:06 1,1 C 95 % 1022,5 hPa 0,0 l/m 0,4 km/h (0 Bft) S-SO 150 0 min 0,000 mm 0,0 UV-I 0 W/m 0,4 C 1,1 C 1,6 km/h (1 Bft) 98,18 %
03.11.2016 21:08 1,0 C 95 % 1022,5 hPa 0,0 l/m 1,5 km/h (1 Bft) S-SO 150 0 min 0,000 mm 0,0 UV-I 0 W/m 0,3 C 1,0 C 3,2 km/h (1 Bft) 97,87 %
03.11.2016 21:10 1,1 C 95 % 1022,4 hPa 0,0 l/m 2,7 km/h (1 Bft) S-SO 150 0 min 0,000 mm 0,0 UV-I 0 W/m 0,4 C 1,1 C 4,8 km/h (1 Bft) 100,00 %
03.11.2016 21:12 0,9 C 95 % 1022,4 hPa 0,0 l/m 3,3 km/h (1 Bft) S-SO 150 0 min 0,000 mm 0,0 UV-I 0 W/m 0,2 C 0,9 C 4,8 km/h (1 Bft) 100,00 %
03.11.2016 21:14 0,8 C 95 % 1022,4 hPa 0,0 l/m 2,3 km/h (1 Bft) S-SO 150 0 min 0,000 mm 0,0 UV-I 0 W/m 0,1 C 0,8 C 3,2 km/h (1 Bft) 100,00 %
03.11.2016 21:16 1,1 C 96 % 1022,4 hPa 0,0 l/m 1,6 km/h (1 Bft) S-SO 150 0 min 0,000 mm 0,0 UV-I 0 W/m 0,5 C 1,1 C 3,2 km/h (1 Bft) 100,00 %
03.11.2016 21:18 1,2 C 96 % 1022,4 hPa 0,0 l/m 0,3 km/h (0 Bft) S-SO 150 0 min 0,000 mm 0,0 UV-I 0 W/m 0,6 C 1,2 C 1,6 km/h (1 Bft) 95,74 %
03.11.2016 21:20 1,2 C 95 % 1022,4 hPa 0,0 l/m 1,0 km/h (0 Bft) S-SO 150 0 min 0,000 mm 0,0 UV-I 0 W/m 0,5 C 1,2 C 1,6 km/h (1 Bft) 97,73 %
03.11.2016 21:22 1,2 C 95 % 1022,4 hPa 0,0 l/m 1,2 km/h (1 Bft) S-SO 150 0 min 0,000 mm 0,0 UV-I 0 W/m 0,5 C 1,2 C 1,6 km/h (1 Bft) 100,00 %
03.11.2016 21:24 1,2 C 95 % 1022,4 hPa 0,0 l/m 1,3 km/h (1 Bft) S-SO 150 0 min 0,000 mm 0,0 UV-I 0 W/m 0,5 C 1,2 C 1,6 km/h (1 Bft) 100,00 %
03.11.2016 21:26 1,2 C 95 % 1022,4 hPa 0,0 l/m 0,7 km/h (0 Bft) S-SO 150 0 min 0,000 mm 0,0 UV-I 0 W/m 0,5 C 1,2 C 1,6 km/h (1 Bft) 98,00 %
03.11.2016 21:28 1,1 C 95 % 1022,4 hPa 0,0 l/m 0,8 km/h (0 Bft) S-SO 150 0 min 0,000 mm 0,0 UV-I 0 W/m 0,4 C 1,1 C 3,2 km/h (1 Bft) 95,74 %
03.11.2016 21:30 1,1 C 95 % 1022,3 hPa 0,0 l/m 1,6 km/h (1 Bft) S-SO 150 0 min 0,000 mm 0,0 UV-I 0 W/m 0,4 C 1,1 C 3,2 km/h (1 Bft) 100,00 %
03.11.2016 21:32 1,0 C 95 % 1022,3 hPa 0,0 l/m 0,5 km/h (0 Bft) S-SO 150 0 min 0,000 mm 0,0 UV-I 0 W/m 0,3 C 1,0 C 1,6 km/h (1 Bft) 98,00 %
03.11.2016 21:34 0,9 C 95 % 1022,4 hPa 0,0 l/m 0,7 km/h (0 Bft) S-SO 150 0 min 0,000 mm 0,0 UV-I 0 W/m 0,2 C 0,9 C 1,6 km/h (1 Bft) 100,00 %
03.11.2016 21:36 0,9 C 95 % 1022,4 hPa 0,0 l/m 1,2 km/h (1 Bft) S-SO 150 0 min 0,000 mm 0,0 UV-I 0 W/m 0,2 C 0,9 C 3,2 km/h (1 Bft) 100,00 %
03.11.2016 21:39 0,9 C 95 % 1022,4 hPa 0,0 l/m 1,4 km/h (1 Bft) S-SO 150 0 min 0,000 mm 0,0 UV-I 0 W/m 0,2 C 0,9 C 3,2 km/h (1 Bft) 98,59 %
03.11.2016 21:40 0,9 C 95 % 1022,4 hPa 0,0 l/m 1,2 km/h (1 Bft) S-SO 150 0 min 0,000 mm 0,0 UV-I 0 W/m 0,2 C 0,9 C 1,6 km/h (1 Bft) 100,00 %
03.11.2016 21:42 0,9 C 95 % 1022,4 hPa 0,0 l/m 1,4 km/h (1 Bft) S-SO 150 0 min 0,000 mm 0,0 UV-I 0 W/m 0,2 C 0,9 C 3,2 km/h (1 Bft) 97,87 %
03.11.2016 21:44 0,8 C 95 % 1022,4 hPa 0,0 l/m 2,0 km/h (1 Bft) S-SO 150 0 min 0,000 mm 0,0 UV-I 0 W/m 0,1 C 0,8 C 3,2 km/h (1 Bft) 100,00 %
03.11.2016 21:46 0,8 C 95 % 1022,4 hPa 0,0 l/m 1,6 km/h (1 Bft) S-SO 150 0 min 0,000 mm 0,0 UV-I 0 W/m 0,1 C 0,8 C 3,2 km/h (1 Bft) 100,00 %
03.11.2016 21:48 0,7 C 95 % 1022,4 hPa 0,0 l/m 1,6 km/h (1 Bft) S-SO 150 0 min 0,000 mm 0,0 UV-I 0 W/m -0,0 C 0,7 C 3,2 km/h (1 Bft) 100,00 %
03.11.2016 21:50 0,7 C 95 % 1022,4 hPa 0,0 l/m 1,1 km/h (1 Bft) S-SO 150 0 min 0,000 mm 0,0 UV-I 0 W/m -0,0 C 0,7 C 1,6 km/h (1 Bft) 98,00 %
03.11.2016 21:52 0,7 C 96 % 1022,4 hPa 0,0 l/m 1,7 km/h (1 Bft) S-SO 150 0 min 0,000 mm 0,0 UV-I 0 W/m 0,1 C 0,7 C 3,2 km/h (1 Bft) 100,00 %
03.11.2016 21:54 0,6 C 95 % 1022,4 hPa 0,0 l/m 1,8 km/h (1 Bft) S-SO 150 0 min 0,000 mm 0,0 UV-I 0 W/m -0,1 C 0,6 C 3,2 km/h (1 Bft) 98,21 %
03.11.2016 21:56 0,5 C 95 % 1022,4 hPa 0,0 l/m 1,2 km/h (1 Bft) S-SO 150 0 min 0,000 mm 0,0 UV-I 0 W/m -0,2 C 0,5 C 3,2 km/h (1 Bft) 100,00 %
03.11.2016 21:58 0,4 C 95 % 1022,4 hPa 0,0 l/m 0,6 km/h (0 Bft) S-SO 150 0 min 0,000 mm 0,0 UV-I 0 W/m -0,3 C 0,4 C 3,2 km/h (1 Bft) 97,87 %
03.11.2016 22:00 0,4 C 95 % 1022,4 hPa 0,0 l/m 0,4 km/h (0 Bft) S-SO 150 0 min 0,000 mm 0,0 UV-I 0 W/m -0,3 C 0,4 C 1,6 km/h (1 Bft) 100,00 %
03.11.2016 22:02 0,5 C 96 % 1022,4 hPa 0,0 l/m 0,0 km/h (0 Bft) S-SO 150 0 min 0,000 mm 0,0 UV-I 0 W/m -0,1 C 0,5 C 0,0 km/h (0 Bft) 100,00 %
03.11.2016 22:04 0,5 C 96 % 1022,4 hPa 0,0 l/m 0,0 km/h (0 Bft) S-SO 150 0 min 0,000 mm 0,0 UV-I 0 W/m -0,1 C 0,5 C 0,0 km/h (0 Bft) 100,00 %
03.11.2016 22:06 0,6 C 96 % 1022,4 hPa 0,0 l/m 0,0 km/h (0 Bft) S-SO 150 0 min 0,000 mm 0,0 UV-I 0 W/m 0,0 C 0,6 C 0,0 km/h (0 Bft) 95,74 %
03.11.2016 22:08 0,7 C 96 % 1022,5 hPa 0,0 l/m 0,9 km/h (0 Bft) S-SO 150 0 min 0,000 mm 0,0 UV-I 0 W/m 0,1 C 0,7 C 1,6 km/h (1 Bft) 100,00 %
03.11.2016 22:10 0,6 C 95 % 1022,5 hPa 0,0 l/m 0,2 km/h (0 Bft) S-SO 150 0 min 0,000 mm 0,0 UV-I 0 W/m -0,1 C 0,6 C 1,6 km/h (1 Bft) 100,00 %
03.11.2016 22:12 0,3 C 95 % 1022,5 hPa 0,0 l/m 0,3 km/h (0 Bft) S-SO 150 0 min 0,000 mm 0,0 UV-I 0 W/m -0,4 C 0,3 C 1,6 km/h (1 Bft) 97,14 %
03.11.2016 22:14 0,2 C 95 % 1022,5 hPa 0,0 l/m 0,6 km/h (0 Bft) S-SO 150 0 min 0,000 mm 0,0 UV-I 0 W/m -0,5 C 0,2 C 1,6 km/h (1 Bft) 98,11 %
03.11.2016 22:16 0,1 C 95 % 1022,5 hPa 0,0 l/m 0,1 km/h (0 Bft) S-SO 150 0 min 0,000 mm 0,0 UV-I 0 W/m -0,6 C 0,1 C 1,6 km/h (1 Bft) 100,00 %
03.11.2016 22:18 0,1 C 95 % 1022,4 hPa 0,0 l/m 0,0 km/h (0 Bft) S-SO 150 0 min 0,000 mm 0,0 UV-I 0 W/m -0,6 C 0,1 C 1,6 km/h (1 Bft) 100,00 %
03.11.2016 22:20 0,1 C 96 % 1022,5 hPa 0,0 l/m 1,6 km/h (1 Bft) S-SO 150 0 min 0,000 mm 0,0 UV-I 0 W/m -0,5 C 0,1 C 3,2 km/h (1 Bft) 94,34 %
03.11.2016 22:22 0,0 C 96 % 1022,5 hPa 0,0 l/m 2,3 km/h (1 Bft) S-SO 150 0 min 0,000 mm 0,0 UV-I 0 W/m -0,6 C 0,0 C 3,2 km/h (1 Bft) 97,87 %
03.11.2016 22:24 0,1 C 96 % 1022,5 hPa 0,0 l/m 1,5 km/h (1 Bft) S-SO 150 0 min 0,000 mm 0,0 UV-I 0 W/m -0,5 C 0,1 C 3,2 km/h (1 Bft) 97,87 %
03.11.2016 22:26 0,2 C 96 % 1022,6 hPa 0,0 l/m 3,2 km/h (1 Bft) S-SO 149 0 min 0,000 mm 0,0 UV-I 0 W/m -0,4 C 0,2 C 4,8 km/h (1 Bft) 95,83 %
03.11.2016 22:28 0,2 C 96 % 1022,5 hPa 0,0 l/m 3,9 km/h (1 Bft) O-NO 61 0 min 0,000 mm 0,0 UV-I 0 W/m -0,4 C 0,2 C 6,4 km/h (2 Bft) 96,77 %
03.11.2016 22:30 0,2 C 96 % 1022,5 hPa 0,0 l/m 5,6 km/h (1 Bft) NO 42 0 min 0,000 mm 0,0 UV-I 0 W/m -0,4 C 0,2 C 6,4 km/h (2 Bft) 98,00 %
03.11.2016 22:32 0,3 C 96 % 1022,5 hPa 0,0 l/m 4,7 km/h (1 Bft) NO 42 0 min 0,000 mm 0,0 UV-I 0 W/m -0,3 C 0,3 C 6,4 km/h (2 Bft) 96,15 %
03.11.2016 22:34 0,3 C 96 % 1022,5 hPa 0,0 l/m 5,3 km/h (1 Bft) NO 35 0 min 0,000 mm 0,0 UV-I 0 W/m -0,3 C 0,3 C 6,4 km/h (2 Bft) 95,83 %
03.11.2016 22:36 0,3 C 96 % 1022,4 hPa 0,0 l/m 5,5 km/h (1 Bft) N-NO 33 0 min 0,000 mm 0,0 UV-I 0 W/m -0,3 C 0,3 C 6,4 km/h (2 Bft) 100,00 %
03.11.2016 22:38 0,3 C 96 % 1022,5 hPa 0,0 l/m 6,0 km/h (2 Bft) NO 36 0 min 0,000 mm 0,0 UV-I 0 W/m -0,3 C 0,3 C 8,0 km/h (2 Bft) 95,74 %
03.11.2016 22:40 0,3 C 96 % 1022,4 hPa 0,0 l/m 5,3 km/h (1 Bft) NO 42 0 min 0,000 mm 0,0 UV-I 0 W/m -0,3 C 0,3 C 6,4 km/h (2 Bft) 93,18 %
03.11.2016 22:42 0,4 C 96 % 1022,4 hPa 0,0 l/m 6,5 km/h (2 Bft) NO 44 0 min 0,000 mm 0,0 UV-I 0 W/m -0,2 C 0,3 C 8,0 km/h (2 Bft) 96,43 %
03.11.2016 22:44 0,4 C 96 % 1022,4 hPa 0,0 l/m 5,5 km/h (1 Bft) NO 39 0 min 0,000 mm 0,0 UV-I 0 W/m -0,2 C 0,4 C 6,4 km/h (2 Bft) 97,37 %
03.11.2016 22:46 0,3 C 96 % 1022,4 hPa 0,0 l/m 6,3 km/h (2 Bft) N-NO 31 0 min 0,000 mm 0,0 UV-I 0 W/m -0,3 C 0,3 C 8,0 km/h (2 Bft) 96,23 %
03.11.2016 22:48 0,3 C 96 % 1022,4 hPa 0,0 l/m 5,1 km/h (1 Bft) NO 37 0 min 0,000 mm 0,0 UV-I 0 W/m -0,3 C 0,3 C 6,4 km/h (2 Bft) 98,00 %
03.11.2016 22:50 0,3 C 96 % 1022,4 hPa 0,0 l/m 5,6 km/h (1 Bft) NO 38 0 min 0,000 mm 0,0 UV-I 0 W/m -0,3 C 0,3 C 6,4 km/h (2 Bft) 97,87 %
03.11.2016 22:52 0,4 C 96 % 1022,4 hPa 0,0 l/m 5,1 km/h (1 Bft) NO 38 0 min 0,000 mm 0,0 UV-I 0 W/m -0,2 C 0,4 C 6,4 km/h (2 Bft) 94,74 %
03.11.2016 22:54 0,4 C 97 % 1022,4 hPa 0,0 l/m 3,4 km/h (1 Bft) NO 38 0 min 0,000 mm 0,0 UV-I 0 W/m -0,0 C 0,4 C 4,8 km/h (1 Bft) 94,64 %
03.11.2016 22:56 0,5 C 96 % 1022,4 hPa 0,0 l/m 4,5 km/h (1 Bft) NO 38 0 min 0,000 mm 0,0 UV-I 0 W/m -0,1 C 0,5 C 6,4 km/h (2 Bft) 94,74 %
03.11.2016 22:58 0,4 C 96 % 1022,3 hPa 0,0 l/m 4,4 km/h (1 Bft) NO 38 0 min 0,000 mm 0,0 UV-I 0 W/m -0,2 C 0,4 C 6,4 km/h (2 Bft) 100,00 %
03.11.2016 23:00 0,4 C 96 % 1022,3 hPa 0,0 l/m 3,4 km/h (1 Bft) NO 38 0 min 0,000 mm 0,0 UV-I 0 W/m -0,2 C 0,4 C 4,8 km/h (1 Bft) 98,11 %
03.11.2016 23:02 0,5 C 97 % 1022,3 hPa 0,0 l/m 2,3 km/h (1 Bft) NO 38 0 min 0,000 mm 0,0 UV-I 0 W/m 0,1 C 0,5 C 3,2 km/h (1 Bft) 96,00 %
03.11.2016 23:04 0,6 C 97 % 1022,3 hPa 0,0 l/m 2,0 km/h (1 Bft) NO 38 0 min 0,000 mm 0,0 UV-I 0 W/m 0,2 C 0,6 C 3,2 km/h (1 Bft) 100,00 %
03.11.2016 23:06 0,6 C 97 % 1022,3 hPa 0,0 l/m 1,9 km/h (1 Bft) NO 38 0 min 0,000 mm 0,0 UV-I 0 W/m 0,2 C 0,6 C 3,2 km/h (1 Bft) 100,00 %
03.11.2016 23:08 0,7 C 97 % 1022,2 hPa 0,0 l/m 3,1 km/h (1 Bft) NO 38 0 min 0,000 mm 0,0 UV-I 0 W/m 0,3 C 0,7 C 3,2 km/h (1 Bft) 100,00 %
03.11.2016 23:10 0,8 C 97 % 1022,2 hPa 0,0 l/m 2,8 km/h (1 Bft) NO 38 0 min 0,000 mm 0,0 UV-I 0 W/m 0,4 C 0,8 C 3,2 km/h (1 Bft) 100,00 %
03.11.2016 23:12 0,8 C 97 % 1022,2 hPa 0,0 l/m 2,4 km/h (1 Bft) NO 38 0 min 0,000 mm 0,0 UV-I 0 W/m 0,4 C 0,8 C 3,2 km/h (1 Bft) 100,00 %
03.11.2016 23:14 0,9 C 97 % 1022,1 hPa 0,0 l/m 1,9 km/h (1 Bft) NO 38 0 min 0,000 mm 0,0 UV-I 0 W/m 0,5 C 0,9 C 3,2 km/h (1 Bft) 100,00 %
03.11.2016 23:16 0,9 C 97 % 1022,1 hPa 0,0 l/m 2,0 km/h (1 Bft) NO 38 0 min 0,000 mm 0,0 UV-I 0 W/m 0,5 C 0,9 C 3,2 km/h (1 Bft) 100,00 %
03.11.2016 23:18 0,8 C 97 % 1022,1 hPa 0,0 l/m 2,4 km/h (1 Bft) NO 38 0 min 0,000 mm 0,0 UV-I 0 W/m 0,4 C 0,8 C 3,2 km/h (1 Bft) 100,00 %
03.11.2016 23:20 0,6 C 97 % 1022,1 hPa 0,0 l/m 2,0 km/h (1 Bft) NO 38 0 min 0,000 mm 0,0 UV-I 0 W/m 0,2 C 0,6 C 3,2 km/h (1 Bft) 100,00 %
03.11.2016 23:22 0,6 C 96 % 1022,2 hPa 0,0 l/m 1,7 km/h (1 Bft) NO 38 0 min 0,000 mm 0,0 UV-I 0 W/m 0,0 C 0,6 C 3,2 km/h (1 Bft) 100,00 %
03.11.2016 23:24 0,5 C 97 % 1022,1 hPa 0,0 l/m 1,9 km/h (1 Bft) NO 38 0 min 0,000 mm 0,0 UV-I 0 W/m 0,1 C 0,5 C 3,2 km/h (1 Bft) 100,00 %
03.11.2016 23:26 0,5 C 97 % 1022,1 hPa 0,0 l/m 2,6 km/h (1 Bft) NO 38 0 min 0,000 mm 0,0 UV-I 0 W/m 0,1 C 0,5 C 3,2 km/h (1 Bft) 97,50 %
03.11.2016 23:29 0,4 C 97 % 1022,1 hPa 0,0 l/m 3,2 km/h (1 Bft) NO 38 0 min 0,000 mm 0,0 UV-I 0 W/m -0,0 C 0,4 C 4,8 km/h (1 Bft) 98,68 %
03.11.2016 23:30 0,5 C 97 % 1022,1 hPa 0,0 l/m 3,1 km/h (1 Bft) NO 38 0 min 0,000 mm 0,0 UV-I 0 W/m 0,1 C 0,5 C 3,2 km/h (1 Bft) 100,00 %
03.11.2016 23:32 0,5 C 97 % 1022,1 hPa 0,0 l/m 2,7 km/h (1 Bft) NO 38 0 min 0,000 mm 0,0 UV-I 0 W/m 0,1 C 0,5 C 3,2 km/h (1 Bft) 100,00 %
03.11.2016 23:34 0,6 C 97 % 1022,0 hPa 0,0 l/m 3,3 km/h (1 Bft) NO 38 0 min 0,000 mm 0,0 UV-I 0 W/m 0,2 C 0,6 C 4,8 km/h (1 Bft) 96,23 %
03.11.2016 23:36 0,7 C 97 % 1022,0 hPa 0,0 l/m 4,0 km/h (1 Bft) NO 52 0 min 0,000 mm 0,0 UV-I 0 W/m 0,3 C 0,7 C 4,8 km/h (1 Bft) 100,00 %
03.11.2016 23:38 0,7 C 97 % 1021,9 hPa 0,0 l/m 4,1 km/h (1 Bft) NO 54 0 min 0,000 mm 0,0 UV-I 0 W/m 0,3 C 0,7 C 6,4 km/h (2 Bft) 100,00 %
03.11.2016 23:40 0,7 C 97 % 1022,0 hPa 0,0 l/m 3,7 km/h (1 Bft) O-NO 57 0 min 0,000 mm 0,0 UV-I 0 W/m 0,3 C 0,7 C 4,8 km/h (1 Bft) 100,00 %
03.11.2016 23:42 0,6 C 97 % 1021,9 hPa 0,0 l/m 3,6 km/h (1 Bft) O-NO 57 0 min 0,000 mm 0,0 UV-I 0 W/m 0,2 C 0,6 C 4,8 km/h (1 Bft) 100,00 %
03.11.2016 23:44 0,6 C 97 % 1021,9 hPa 0,0 l/m 4,2 km/h (1 Bft) O-NO 57 0 min 0,000 mm 0,0 UV-I 0 W/m 0,2 C 0,6 C 4,8 km/h (1 Bft) 100,00 %
03.11.2016 23:46 0,5 C 97 % 1021,9 hPa 0,0 l/m 3,3 km/h (1 Bft) O-NO 62 0 min 0,000 mm 0,0 UV-I 0 W/m 0,1 C 0,5 C 6,4 km/h (2 Bft) 100,00 %
03.11.2016 23:48 0,4 C 97 % 1021,8 hPa 0,0 l/m 4,5 km/h (1 Bft) O 84 0 min 0,000 mm 0,0 UV-I 0 W/m -0,0 C 0,4 C 6,4 km/h (2 Bft) 100,00 %
03.11.2016 23:50 0,4 C 97 % 1021,8 hPa 0,0 l/m 4,4 km/h (1 Bft) O 84 0 min 0,000 mm 0,0 UV-I 0 W/m -0,0 C 0,4 C 6,4 km/h (2 Bft) 98,00 %
03.11.2016 23:52 0,4 C 97 % 1021,7 hPa 0,0 l/m 4,2 km/h (1 Bft) O-NO 69 0 min 0,000 mm 0,0 UV-I 0 W/m -0,0 C 0,4 C 8,0 km/h (2 Bft) 97,87 %
03.11.2016 23:54 0,5 C 97 % 1021,7 hPa 0,0 l/m 5,1 km/h (1 Bft) O 94 0 min 0,000 mm 0,0 UV-I 0 W/m 0,1 C 0,5 C 8,0 km/h (2 Bft) 97,83 %
03.11.2016 23:56 0,6 C 97 % 1021,7 hPa 0,0 l/m 3,4 km/h (1 Bft) O-NO 77 0 min 0,000 mm 0,0 UV-I 0 W/m 0,2 C 0,6 C 6,4 km/h (2 Bft) 100,00 %
03.11.2016 23:58 0,6 C 97 % 1021,6 hPa 0,0 l/m 3,9 km/h (1 Bft) O-NO 65 0 min 0,000 mm 0,0 UV-I 0 W/m 0,2 C 0,6 C 6,4 km/h (2 Bft) 100,00 %
_ Min-Zeit 22:22 12:36 00:06 - 17:30 - - - - - - 22:16 06:00 17:30 15:44
Minimum _ 0,0 C 75 % 1018,0 hPa - 0,0 km/h (0 Bft) - - - - - - -0,6 C -2,6 C 0,0 km/h (0 Bft) 92,31 %
_ Max-Zeit 12:40 22:54 21:02 00:00 10:56 - - 15:43 13:02 12:34 12:36 10:40 12:54 10:56 00:00
Maximum _ 8,1 C 97 % 1022,6 hPa 0,0 l/m 19,3 km/h
W (3 Bft)
- - 3 min 0,152 mm 1,0 UV-I 585 W/m 4,4 C 7,6 C 30,6 km/h
SW (5 Bft)
100,00 %
Durchschnitt _ 4,4 C 88 % 1021,0 hPa #0,0 l/m 7,2 km/h (2 Bft) W-SW - #1:32 h #0,660 mm 0,6 UV-I 117 W/m 2,6 C 2,6 C 11,5 km/h (2 Bft) 98,68 %